Time,TemperatureF,DewpointF,PressureIn,WindDirection,WindDirectionDegrees,WindSpeedMPH,WindSpeedGustMPH,Humidity,HourlyPrecipIn,Conditions,Clouds,dailyrainin,SoftwareType,DateUTC
2013-05-16 00:01:00,57.6,54.7,29.71,SW,214,2.0,5.0,90,0.00,,,0.00,meteohub,2013-05-16 04:01:00,
2013-05-16 00:06:00,57.7,55.2,29.71,SW,217,2.0,5.0,91,0.00,,,0.00,meteohub,2013-05-16 04:06:00,
2013-05-16 00:07:00,57.7,55.2,29.71,SW,217,0.0,5.0,91,0.00,,,0.00,meteohub,2013-05-16 04:07:00,
2013-05-16 00:11:00,57.7,54.9,29.71,SW,225,2.0,5.0,90,0.00,,,0.00,meteohub,2013-05-16 04:11:00,
2013-05-16 00:12:00,57.6,54.7,29.71,SSW,198,2.0,5.0,90,0.00,,,0.00,meteohub,2013-05-16 04:12:00,
2013-05-16 00:16:00,57.4,54.9,29.71,SSW,203,2.0,6.0,91,0.00,,,0.00,meteohub,2013-05-16 04:16:00,
2013-05-16 00:17:00,57.4,54.9,29.71,SW,214,2.0,6.0,91,0.00,,,0.00,meteohub,2013-05-16 04:17:00,
2013-05-16 00:21:00,57.6,55.2,29.71,SW,215,4.0,6.0,92,0.00,,,0.00,meteohub,2013-05-16 04:21:00,
2013-05-16 00:22:00,57.7,55.4,29.71,SW,234,2.0,6.0,92,0.00,,,0.00,meteohub,2013-05-16 04:22:00,
2013-05-16 00:23:00,57.7,55.4,29.71,SW,234,2.0,6.0,92,0.00,,,0.00,meteohub,2013-05-16 04:23:00,
2013-05-16 00:26:00,58.1,55.4,29.71,SW,221,2.0,6.0,91,0.00,,,0.00,meteohub,2013-05-16 04:26:00,
2013-05-16 00:27:00,58.1,55.4,29.71,SW,215,2.0,6.0,91,0.00,,,0.00,meteohub,2013-05-16 04:27:00,
2013-05-16 00:28:00,58.1,55.4,29.71,SSW,202,2.0,6.0,91,0.00,,,0.00,meteohub,2013-05-16 04:28:00,
2013-05-16 00:29:00,57.9,55.2,29.71,SW,215,2.0,6.0,91,0.00,,,0.00,meteohub,2013-05-16 04:29:00,
2013-05-16 00:32:00,57.9,55.2,29.71,SW,224,2.0,6.0,91,0.00,,,0.00,meteohub,2013-05-16 04:32:00,
2013-05-16 00:33:00,57.9,55.2,29.71,SSW,208,1.0,6.0,91,0.00,,,0.00,meteohub,2013-05-16 04:33:00,
2013-05-16 00:34:00,58.1,55.8,29.71,SW,221,3.0,6.0,92,0.00,,,0.00,meteohub,2013-05-16 04:34:00,
2013-05-16 00:35:00,58.3,55.9,29.71,SW,232,2.0,5.0,92,0.00,,,0.00,meteohub,2013-05-16 04:35:00,
2013-05-16 00:37:00,58.5,56.1,29.71,SW,225,3.0,5.0,92,0.00,,,0.00,meteohub,2013-05-16 04:37:00,
2013-05-16 00:39:00,58.8,56.5,29.71,SW,236,5.0,5.0,92,0.00,,,0.00,meteohub,2013-05-16 04:39:00,
2013-05-16 00:41:00,59.4,57.0,29.71,WSW,238,2.0,7.0,92,0.00,,,0.00,meteohub,2013-05-16 04:41:00,
2013-05-16 00:42:00,59.4,57.0,29.71,WSW,239,3.0,7.0,92,0.00,,,0.00,meteohub,2013-05-16 04:42:00,
2013-05-16 00:45:00,59.5,57.2,29.71,SW,225,4.0,7.0,92,0.00,,,0.00,meteohub,2013-05-16 04:45:00,
2013-05-16 00:46:00,59.7,57.4,29.71,SW,226,4.0,8.0,92,0.00,,,0.00,meteohub,2013-05-16 04:46:00,
2013-05-16 00:47:00,59.7,57.4,29.71,SW,235,4.0,8.0,92,0.00,,,0.00,meteohub,2013-05-16 04:47:00,
2013-05-16 00:48:00,59.9,57.6,29.71,WSW,242,4.0,8.0,92,0.00,,,0.00,meteohub,2013-05-16 04:48:00,
2013-05-16 00:50:00,60.1,57.7,29.71,SW,229,3.0,8.0,92,0.00,,,0.00,meteohub,2013-05-16 04:50:00,
2013-05-16 00:51:00,60.1,57.7,29.71,SW,232,2.0,8.0,92,0.00,,,0.00,meteohub,2013-05-16 04:51:00,
2013-05-16 00:52:00,60.1,57.7,29.71,SW,220,3.0,8.0,92,0.00,,,0.00,meteohub,2013-05-16 04:52:00,
2013-05-16 00:53:00,60.1,57.7,29.71,WSW,239,6.0,8.0,92,0.00,,,0.00,meteohub,2013-05-16 04:53:00,
2013-05-16 00:55:00,60.3,57.6,29.70,SW,217,6.0,8.0,91,0.00,,,0.00,meteohub,2013-05-16 04:55:00,
2013-05-16 00:57:00,60.3,57.6,29.70,WSW,242,2.0,8.0,91,0.00,,,0.00,meteohub,2013-05-16 04:57:00,
2013-05-16 00:58:00,60.3,57.6,29.71,SW,225,5.0,8.0,91,0.00,,,0.00,meteohub,2013-05-16 04:58:00,
2013-05-16 00:59:00,60.3,57.6,29.71,SW,236,5.0,8.0,91,0.00,,,0.00,meteohub,2013-05-16 04:59:00,
2013-05-16 01:02:00,60.4,57.7,29.71,SW,232,5.0,8.0,91,0.00,,,0.00,meteohub,2013-05-16 05:02:00,
2013-05-16 01:03:00,60.4,57.7,29.70,WSW,242,8.0,8.0,91,0.00,,,0.00,meteohub,2013-05-16 05:03:00,
2013-05-16 01:05:00,60.4,57.7,29.70,SW,225,3.0,8.0,91,0.00,,,0.00,meteohub,2013-05-16 05:05:00,
2013-05-16 01:07:00,60.4,57.7,29.70,SW,221,5.0,8.0,91,0.00,,,0.00,meteohub,2013-05-16 05:07:00,
2013-05-16 01:08:00,60.4,57.7,29.70,SW,236,4.0,8.0,91,0.00,,,0.00,meteohub,2013-05-16 05:08:00,
2013-05-16 01:10:00,60.4,57.7,29.70,WSW,240,3.0,8.0,91,0.00,,,0.00,meteohub,2013-05-16 05:10:00,
2013-05-16 01:12:00,60.4,57.7,29.70,SW,228,7.0,8.0,91,0.00,,,0.00,meteohub,2013-05-16 05:12:00,
2013-05-16 01:14:00,60.4,57.7,29.70,WSW,240,3.0,8.0,91,0.00,,,0.00,meteohub,2013-05-16 05:14:00,
2013-05-16 01:17:00,60.4,57.7,29.70,WSW,238,6.0,8.0,91,0.00,,,0.00,meteohub,2013-05-16 05:17:00,
2013-05-16 01:18:00,60.4,57.7,29.70,WSW,243,4.0,8.0,91,0.00,,,0.00,meteohub,2013-05-16 05:18:00,
2013-05-16 01:19:00,60.4,57.7,29.70,WSW,242,2.0,8.0,91,0.00,,,0.00,meteohub,2013-05-16 05:19:00,
2013-05-16 01:22:00,60.4,57.7,29.70,SW,234,3.0,8.0,91,0.00,,,0.00,meteohub,2013-05-16 05:22:00,
2013-05-16 01:23:00,60.4,57.7,29.70,SW,234,4.0,8.0,91,0.00,,,0.00,meteohub,2013-05-16 05:23:00,
2013-05-16 01:24:00,60.4,57.7,29.70,SW,232,2.0,8.0,91,0.00,,,0.00,meteohub,2013-05-16 05:24:00,
2013-05-16 01:27:00,60.4,57.7,29.70,SW,226,4.0,8.0,91,0.00,,,0.00,meteohub,2013-05-16 05:27:00,
2013-05-16 01:28:00,60.4,57.7,29.70,SW,225,6.0,8.0,91,0.00,,,0.00,meteohub,2013-05-16 05:28:00,
2013-05-16 01:29:00,60.4,57.7,29.70,SW,236,5.0,8.0,91,0.00,,,0.00,meteohub,2013-05-16 05:29:00,
2013-05-16 01:33:00,60.4,57.7,29.71,WSW,242,5.0,8.0,91,0.00,,,0.00,meteohub,2013-05-16 05:33:00,
2013-05-16 01:34:00,60.4,57.7,29.71,WSW,254,1.0,8.0,91,0.00,,,0.00,meteohub,2013-05-16 05:34:00,
2013-05-16 01:35:00,60.4,57.7,29.72,North,355,3.0,8.0,91,0.00,,,0.00,meteohub,2013-05-16 05:35:00,
2013-05-16 01:38:00,60.4,57.7,29.72,NNE,19,2.0,8.0,91,0.00,,,0.00,meteohub,2013-05-16 05:38:00,
2013-05-16 01:39:00,60.4,57.7,29.72,West,275,2.0,8.0,91,0.00,,,0.00,meteohub,2013-05-16 05:39:00,
2013-05-16 01:40:00,60.4,57.7,29.72,NNW,336,0.0,8.0,91,0.00,,,0.00,meteohub,2013-05-16 05:40:00,
2013-05-16 01:41:00,60.4,57.7,29.72,WNW,292,0.0,9.0,91,0.00,,,0.00,meteohub,2013-05-16 05:41:00,
2013-05-16 01:43:00,60.4,57.7,29.71,WSW,243,1.0,9.0,91,0.00,,,0.00,meteohub,2013-05-16 05:43:00,
2013-05-16 01:44:00,60.4,57.7,29.71,WSW,243,0.0,9.0,91,0.00,,,0.00,meteohub,2013-05-16 05:44:00,
2013-05-16 01:45:00,60.4,57.7,29.72,NNE,14,4.0,9.0,91,0.00,,,0.00,meteohub,2013-05-16 05:45:00,
2013-05-16 01:46:00,60.6,57.9,29.72,NNE,28,3.0,9.0,91,0.00,,,0.00,meteohub,2013-05-16 05:46:00,
2013-05-16 01:50:00,60.6,57.9,29.73,NE,36,1.0,9.0,91,0.00,,,0.00,meteohub,2013-05-16 05:50:00,
2013-05-16 01:51:00,60.6,57.9,29.72,NNE,17,0.0,9.0,91,0.00,,,0.00,meteohub,2013-05-16 05:51:00,
2013-05-16 01:55:00,60.6,57.9,29.72,SSW,212,0.0,9.0,91,0.00,,,0.00,meteohub,2013-05-16 05:55:00,
2013-05-16 01:56:00,60.8,58.1,29.72,East,98,2.0,8.0,91,0.00,,,0.00,meteohub,2013-05-16 05:56:00,
2013-05-16 01:58:00,60.6,57.9,29.73,NE,39,3.0,8.0,91,0.00,,,0.00,meteohub,2013-05-16 05:58:00,
2013-05-16 02:00:00,60.4,57.7,29.73,NE,38,4.0,8.0,91,0.00,,,0.00,meteohub,2013-05-16 06:00:00,
2013-05-16 02:01:00,60.4,57.6,29.73,NE,35,3.0,6.0,90,0.00,,,0.00,meteohub,2013-05-16 06:01:00,
2013-05-16 02:04:00,60.3,57.6,29.72,East,91,2.0,6.0,91,0.00,,,0.00,meteohub,2013-05-16 06:04:00,
2013-05-16 02:05:00,60.3,57.4,29.72,East,97,0.0,6.0,90,0.00,,,0.00,meteohub,2013-05-16 06:05:00,
2013-05-16 02:06:00,60.1,57.2,29.72,East,97,0.0,4.0,90,0.00,,,0.00,meteohub,2013-05-16 06:06:00,
2013-05-16 02:07:00,59.9,57.0,29.72,East,97,1.0,4.0,90,0.00,,,0.00,meteohub,2013-05-16 06:07:00,
2013-05-16 02:09:00,59.5,56.3,29.73,East,97,1.0,4.0,89,0.00,,,0.00,meteohub,2013-05-16 06:09:00,
2013-05-16 02:10:00,59.4,56.1,29.73,East,97,0.0,4.0,89,0.00,,,0.00,meteohub,2013-05-16 06:10:00,
2013-05-16 02:11:00,59.2,56.3,29.73,SE,127,3.0,4.0,90,0.00,,,0.00,meteohub,2013-05-16 06:11:00,
2013-05-16 02:12:00,59.2,56.3,29.72,SE,144,1.0,4.0,90,0.00,,,0.00,meteohub,2013-05-16 06:12:00,
2013-05-16 02:14:00,58.8,55.9,29.72,SSE,153,0.0,4.0,90,0.00,,,0.00,meteohub,2013-05-16 06:14:00,
2013-05-16 02:15:00,58.6,55.8,29.72,SSE,153,0.0,4.0,90,0.00,,,0.00,meteohub,2013-05-16 06:15:00,
2013-05-16 02:16:00,58.6,55.8,29.72,SSE,153,0.0,4.0,90,0.00,,,0.00,meteohub,2013-05-16 06:16:00,
2013-05-16 02:17:00,58.6,55.8,29.72,SSE,153,0.0,4.0,90,0.00,,,0.00,meteohub,2013-05-16 06:17:00,
2013-05-16 02:19:00,58.6,55.9,29.72,SSE,153,0.0,4.0,91,0.00,,,0.00,meteohub,2013-05-16 06:19:00,
2013-05-16 02:20:00,58.6,55.9,29.72,SSE,153,0.0,3.0,91,0.00,,,0.00,meteohub,2013-05-16 06:20:00,
2013-05-16 02:22:00,58.5,55.8,29.72,SSE,153,1.0,3.0,91,0.00,,,0.00,meteohub,2013-05-16 06:22:00,
2013-05-16 02:25:00,58.3,55.4,29.72,SSE,153,0.0,3.0,90,0.00,,,0.00,meteohub,2013-05-16 06:25:00,
2013-05-16 02:27:00,57.9,55.0,29.71,SSE,153,0.0,3.0,90,0.00,,,0.00,meteohub,2013-05-16 06:27:00,
2013-05-16 02:28:00,57.9,55.2,29.71,SSE,153,0.0,3.0,91,0.00,,,0.00,meteohub,2013-05-16 06:28:00,
2013-05-16 02:30:00,57.9,55.2,29.72,SSE,153,1.0,3.0,91,0.00,,,0.00,meteohub,2013-05-16 06:30:00,
2013-05-16 02:32:00,57.9,55.2,29.72,ESE,123,2.0,2.0,91,0.00,,,0.00,meteohub,2013-05-16 06:32:00,
2013-05-16 02:33:00,57.9,55.2,29.72,SE,126,2.0,2.0,91,0.00,,,0.00,meteohub,2013-05-16 06:33:00,
2013-05-16 02:35:00,57.7,55.2,29.72,SE,129,2.0,2.0,91,0.00,,,0.00,meteohub,2013-05-16 06:35:00,
2013-05-16 02:37:00,57.6,54.7,29.72,SSE,154,2.0,3.0,90,0.00,,,0.00,meteohub,2013-05-16 06:37:00,
2013-05-16 02:38:00,57.2,54.3,29.72,SSE,166,2.0,3.0,90,0.00,,,0.00,meteohub,2013-05-16 06:38:00,
2013-05-16 02:40:00,56.8,54.0,29.72,SSE,167,0.0,3.0,90,0.00,,,0.00,meteohub,2013-05-16 06:40:00,
2013-05-16 02:42:00,56.8,54.3,29.72,SSE,167,0.0,3.0,91,0.00,,,0.00,meteohub,2013-05-16 06:42:00,
2013-05-16 02:43:00,56.8,54.3,29.72,SSE,167,1.0,3.0,91,0.00,,,0.00,meteohub,2013-05-16 06:43:00,
2013-05-16 02:44:00,56.8,54.5,29.72,SSE,167,0.0,3.0,92,0.00,,,0.00,meteohub,2013-05-16 06:44:00,
2013-05-16 02:46:00,56.8,54.5,29.71,SSE,167,0.0,3.0,92,0.00,,,0.00,meteohub,2013-05-16 06:46:00,
2013-05-16 02:47:00,57.0,54.7,29.71,SSE,167,1.0,3.0,92,0.00,,,0.00,meteohub,2013-05-16 06:47:00,
2013-05-16 02:48:00,57.0,54.7,29.71,SSE,167,0.0,3.0,92,0.00,,,0.00,meteohub,2013-05-16 06:48:00,
2013-05-16 02:49:00,57.0,54.7,29.71,SSE,167,0.0,3.0,92,0.00,,,0.00,meteohub,2013-05-16 06:49:00,
2013-05-16 02:51:00,57.2,54.9,29.71,SSE,167,1.0,3.0,92,0.00,,,0.00,meteohub,2013-05-16 06:51:00,
2013-05-16 02:52:00,57.4,55.0,29.71,SSE,167,1.0,3.0,92,0.00,,,0.00,meteohub,2013-05-16 06:52:00,
2013-05-16 02:53:00,57.4,55.0,29.71,SSE,167,0.0,3.0,92,0.00,,,0.00,meteohub,2013-05-16 06:53:00,
2013-05-16 02:55:00,57.4,55.0,29.71,SSE,167,0.0,3.0,92,0.00,,,0.00,meteohub,2013-05-16 06:55:00,
2013-05-16 02:56:00,57.4,55.0,29.71,SSE,167,0.0,2.0,92,0.00,,,0.00,meteohub,2013-05-16 06:56:00,
2013-05-16 02:57:00,57.4,55.0,29.71,SSE,167,0.0,2.0,92,0.00,,,0.00,meteohub,2013-05-16 06:57:00,
2013-05-16 02:58:00,57.4,55.0,29.71,SSE,167,0.0,2.0,92,0.00,,,0.00,meteohub,2013-05-16 06:58:00,
2013-05-16 02:59:00,57.4,55.0,29.71,SSE,167,0.0,2.0,92,0.00,,,0.00,meteohub,2013-05-16 06:59:00,
2013-05-16 03:01:00,57.4,55.0,29.71,SSE,167,0.0,2.0,92,0.00,,,0.00,meteohub,2013-05-16 07:01:00,
2013-05-16 03:03:00,57.2,54.9,29.71,SSE,167,0.0,2.0,92,0.00,,,0.00,meteohub,2013-05-16 07:03:00,
2013-05-16 03:04:00,57.2,54.9,29.71,SSE,167,0.0,2.0,92,0.00,,,0.00,meteohub,2013-05-16 07:04:00,
2013-05-16 03:06:00,57.0,54.7,29.71,SSE,167,0.0,2.0,92,0.00,,,0.00,meteohub,2013-05-16 07:06:00,
2013-05-16 03:07:00,57.2,54.9,29.71,SSE,167,0.0,2.0,92,0.00,,,0.00,meteohub,2013-05-16 07:07:00,
2013-05-16 03:08:00,57.0,54.7,29.71,SSE,167,0.0,2.0,92,0.00,,,0.00,meteohub,2013-05-16 07:08:00,
2013-05-16 03:09:00,57.0,54.7,29.71,SSE,167,0.0,2.0,92,0.00,,,0.00,meteohub,2013-05-16 07:09:00,
2013-05-16 03:10:00,57.0,54.7,29.71,SSE,167,0.0,2.0,92,0.00,,,0.00,meteohub,2013-05-16 07:10:00,
2013-05-16 03:11:00,57.2,54.9,29.71,SSE,167,0.0,2.0,92,0.00,,,0.00,meteohub,2013-05-16 07:11:00,
2013-05-16 03:12:00,57.2,54.9,29.71,SSE,167,0.0,2.0,92,0.00,,,0.00,meteohub,2013-05-16 07:12:00,
2013-05-16 03:13:00,57.4,55.0,29.71,SSE,168,1.0,2.0,92,0.00,,,0.00,meteohub,2013-05-16 07:13:00,
2013-05-16 03:14:00,57.4,55.4,29.71,SSE,168,0.0,2.0,93,0.00,,,0.00,meteohub,2013-05-16 07:14:00,
2013-05-16 03:15:00,57.4,55.4,29.71,SSE,168,1.0,2.0,93,0.00,,,0.00,meteohub,2013-05-16 07:15:00,
2013-05-16 03:16:00,57.4,55.4,29.71,SSE,168,1.0,2.0,93,0.00,,,0.00,meteohub,2013-05-16 07:16:00,
2013-05-16 03:17:00,57.6,55.6,29.71,South,171,1.0,2.0,93,0.00,,,0.00,meteohub,2013-05-16 07:17:00,
2013-05-16 03:18:00,57.6,55.6,29.71,South,171,0.0,2.0,93,0.00,,,0.00,meteohub,2013-05-16 07:18:00,
2013-05-16 03:19:00,57.7,55.8,29.71,South,171,0.0,2.0,93,0.00,,,0.00,meteohub,2013-05-16 07:19:00,
2013-05-16 03:20:00,57.7,55.8,29.71,South,171,0.0,2.0,93,0.00,,,0.00,meteohub,2013-05-16 07:20:00,
2013-05-16 03:22:00,57.7,55.8,29.71,South,171,0.0,2.0,93,0.00,,,0.00,meteohub,2013-05-16 07:22:00,
2013-05-16 03:23:00,57.7,55.8,29.71,South,171,1.0,2.0,93,0.00,,,0.00,meteohub,2013-05-16 07:23:00,
2013-05-16 03:24:00,57.9,55.9,29.71,South,171,0.0,2.0,93,0.00,,,0.00,meteohub,2013-05-16 07:24:00,
2013-05-16 03:25:00,57.9,55.9,29.71,South,172,1.0,2.0,93,0.00,,,0.00,meteohub,2013-05-16 07:25:00,
2013-05-16 03:27:00,57.9,55.9,29.71,South,171,0.0,2.0,93,0.00,,,0.00,meteohub,2013-05-16 07:27:00,
2013-05-16 03:28:00,58.1,56.1,29.71,South,171,0.0,2.0,93,0.00,,,0.00,meteohub,2013-05-16 07:28:00,
2013-05-16 03:29:00,58.1,56.1,29.71,South,171,1.0,2.0,93,0.00,,,0.00,meteohub,2013-05-16 07:29:00,
2013-05-16 03:30:00,58.3,56.3,29.71,South,171,0.0,2.0,93,0.00,,,0.00,meteohub,2013-05-16 07:30:00,
2013-05-16 03:32:00,58.5,56.5,29.71,South,171,0.0,2.0,93,0.00,,,0.00,meteohub,2013-05-16 07:32:00,
2013-05-16 03:34:00,58.5,56.5,29.71,South,171,0.0,2.0,93,0.00,,,0.00,meteohub,2013-05-16 07:34:00,
2013-05-16 03:35:00,58.6,56.7,29.71,South,171,0.0,2.0,93,0.00,,,0.00,meteohub,2013-05-16 07:35:00,
2013-05-16 03:36:00,58.6,56.7,29.71,South,171,0.0,2.0,93,0.00,,,0.00,meteohub,2013-05-16 07:36:00,
2013-05-16 03:37:00,58.6,56.7,29.71,South,171,0.0,2.0,93,0.00,,,0.00,meteohub,2013-05-16 07:37:00,
2013-05-16 03:39:00,58.6,56.7,29.71,South,171,0.0,2.0,93,0.00,,,0.00,meteohub,2013-05-16 07:39:00,
2013-05-16 03:40:00,58.6,56.7,29.71,South,171,0.0,2.0,93,0.00,,,0.00,meteohub,2013-05-16 07:40:00,
2013-05-16 03:41:00,58.6,56.7,29.71,South,171,0.0,2.0,93,0.00,,,0.00,meteohub,2013-05-16 07:41:00,
2013-05-16 03:42:00,58.6,56.7,29.71,South,171,0.0,2.0,93,0.00,,,0.00,meteohub,2013-05-16 07:42:00,
2013-05-16 03:44:00,58.8,56.8,29.71,South,171,0.0,2.0,93,0.00,,,0.00,meteohub,2013-05-16 07:44:00,
2013-05-16 03:45:00,58.8,56.8,29.71,South,171,0.0,1.0,93,0.00,,,0.00,meteohub,2013-05-16 07:45:00,
2013-05-16 03:46:00,58.8,56.8,29.71,South,171,0.0,1.0,93,0.00,,,0.00,meteohub,2013-05-16 07:46:00,
2013-05-16 03:47:00,58.8,56.8,29.71,South,171,0.0,1.0,93,0.00,,,0.00,meteohub,2013-05-16 07:47:00,
2013-05-16 03:48:00,58.8,56.8,29.71,South,171,0.0,1.0,93,0.00,,,0.00,meteohub,2013-05-16 07:48:00,
2013-05-16 03:50:00,58.8,56.8,29.71,South,171,0.0,1.0,93,0.00,,,0.00,meteohub,2013-05-16 07:50:00,
2013-05-16 03:51:00,58.8,56.8,29.71,South,171,0.0,0.0,93,0.00,,,0.00,meteohub,2013-05-16 07:51:00,
2013-05-16 03:53:00,58.8,56.8,29.72,South,171,0.0,0.0,93,0.00,,,0.00,meteohub,2013-05-16 07:53:00,
2013-05-16 03:55:00,58.8,56.8,29.72,South,171,1.0,1.0,93,0.00,,,0.00,meteohub,2013-05-16 07:55:00,
2013-05-16 03:56:00,58.8,56.8,29.72,South,171,0.0,1.0,93,0.00,,,0.00,meteohub,2013-05-16 07:56:00,
2013-05-16 03:57:00,58.8,56.8,29.72,South,171,0.0,1.0,93,0.00,,,0.00,meteohub,2013-05-16 07:57:00,
2013-05-16 03:58:00,58.8,56.8,29.72,South,171,0.0,1.0,93,0.00,,,0.00,meteohub,2013-05-16 07:58:00,
2013-05-16 04:01:00,58.6,56.7,29.72,South,171,0.0,2.0,93,0.00,,,0.00,meteohub,2013-05-16 08:01:00,
2013-05-16 04:02:00,58.6,56.7,29.72,South,171,0.0,2.0,93,0.00,,,0.00,meteohub,2013-05-16 08:02:00,
2013-05-16 04:03:00,58.6,56.7,29.72,South,171,0.0,2.0,93,0.00,,,0.00,meteohub,2013-05-16 08:03:00,
2013-05-16 04:06:00,58.6,56.7,29.72,South,171,0.0,2.0,93,0.00,,,0.00,meteohub,2013-05-16 08:06:00,
2013-05-16 04:07:00,58.6,56.7,29.72,South,171,0.0,2.0,93,0.00,,,0.00,meteohub,2013-05-16 08:07:00,
2013-05-16 04:08:00,58.6,56.7,29.72,South,171,0.0,2.0,93,0.00,,,0.00,meteohub,2013-05-16 08:08:00,
2013-05-16 04:12:00,58.6,56.7,29.72,South,171,0.0,2.0,93,0.00,,,0.00,meteohub,2013-05-16 08:12:00,
2013-05-16 04:13:00,58.6,56.7,29.72,South,171,0.0,2.0,93,0.00,,,0.00,meteohub,2013-05-16 08:13:00,
2013-05-16 04:17:00,58.8,56.8,29.73,South,171,0.0,1.0,93,0.00,,,0.00,meteohub,2013-05-16 08:17:00,
2013-05-16 04:18:00,58.8,56.8,29.73,South,171,0.0,1.0,93,0.00,,,0.00,meteohub,2013-05-16 08:18:00,
2013-05-16 04:19:00,58.8,56.8,29.73,South,171,0.0,1.0,93,0.00,,,0.00,meteohub,2013-05-16 08:19:00,
2013-05-16 04:22:00,58.8,56.8,29.72,South,171,0.0,1.0,93,0.00,,,0.00,meteohub,2013-05-16 08:22:00,
2013-05-16 04:24:00,58.8,56.8,29.72,South,171,0.0,1.0,93,0.00,,,0.00,meteohub,2013-05-16 08:24:00,
2013-05-16 04:27:00,58.8,56.8,29.72,South,171,0.0,1.0,93,0.00,,,0.00,meteohub,2013-05-16 08:27:00,
2013-05-16 04:28:00,58.8,56.8,29.73,South,171,0.0,1.0,93,0.00,,,0.00,meteohub,2013-05-16 08:28:00,
2013-05-16 04:29:00,58.8,56.8,29.72,South,171,0.0,1.0,93,0.00,,,0.00,meteohub,2013-05-16 08:29:00,
2013-05-16 04:30:00,59.0,57.0,29.72,South,171,0.0,1.0,93,0.00,,,0.00,meteohub,2013-05-16 08:30:00,
2013-05-16 04:33:00,59.0,57.0,29.72,South,171,0.0,1.0,93,0.00,,,0.00,meteohub,2013-05-16 08:33:00,
2013-05-16 04:34:00,59.0,57.0,29.72,South,171,0.0,1.0,93,0.00,,,0.00,meteohub,2013-05-16 08:34:00,
2013-05-16 04:35:00,59.0,57.0,29.72,South,171,0.0,1.0,93,0.00,,,0.00,meteohub,2013-05-16 08:35:00,
2013-05-16 04:38:00,59.0,57.0,29.73,South,171,0.0,1.0,93,0.00,,,0.00,meteohub,2013-05-16 08:38:00,
2013-05-16 04:39:00,59.0,57.0,29.72,South,171,0.0,1.0,93,0.00,,,0.00,meteohub,2013-05-16 08:39:00,
2013-05-16 04:40:00,59.0,57.0,29.72,South,171,0.0,1.0,93,0.00,,,0.00,meteohub,2013-05-16 08:40:00,
2013-05-16 04:43:00,59.0,57.0,29.72,South,171,0.0,1.0,93,0.00,,,0.00,meteohub,2013-05-16 08:43:00,
2013-05-16 04:44:00,58.8,56.8,29.72,South,171,0.0,1.0,93,0.00,,,0.00,meteohub,2013-05-16 08:44:00,
2013-05-16 04:45:00,58.8,56.8,29.72,South,171,0.0,1.0,93,0.00,,,0.00,meteohub,2013-05-16 08:45:00,
2013-05-16 04:48:00,58.3,55.9,29.72,South,171,0.0,1.0,92,0.00,,,0.00,meteohub,2013-05-16 08:48:00,
2013-05-16 04:50:00,58.1,55.8,29.72,South,171,0.0,1.0,92,0.00,,,0.00,meteohub,2013-05-16 08:50:00,
2013-05-16 04:51:00,57.9,55.6,29.72,South,171,0.0,1.0,92,0.00,,,0.00,meteohub,2013-05-16 08:51:00,
2013-05-16 04:53:00,57.6,55.2,29.72,South,171,1.0,1.0,92,0.00,,,0.00,meteohub,2013-05-16 08:53:00,
2013-05-16 04:55:00,57.6,55.2,29.72,South,171,0.0,1.0,92,0.00,,,0.00,meteohub,2013-05-16 08:55:00,
2013-05-16 04:56:00,57.4,55.0,29.72,South,171,1.0,1.0,92,0.00,,,0.00,meteohub,2013-05-16 08:56:00,
2013-05-16 04:58:00,57.0,55.0,29.72,South,171,0.0,2.0,93,0.00,,,0.00,meteohub,2013-05-16 08:58:00,
2013-05-16 05:00:00,57.0,55.0,29.72,South,171,1.0,2.0,93,0.00,,,0.00,meteohub,2013-05-16 09:00:00,
2013-05-16 05:01:00,57.0,55.0,29.72,South,171,0.0,2.0,93,0.00,,,0.00,meteohub,2013-05-16 09:01:00,
2013-05-16 05:02:00,57.0,55.0,29.72,South,171,1.0,2.0,93,0.00,,,0.00,meteohub,2013-05-16 09:02:00,
2013-05-16 05:03:00,57.0,55.0,29.72,South,171,0.0,2.0,93,0.00,,,0.00,meteohub,2013-05-16 09:03:00,
2013-05-16 05:06:00,57.0,55.0,29.72,South,171,0.0,2.0,93,0.00,,,0.00,meteohub,2013-05-16 09:06:00,
2013-05-16 05:07:00,57.0,55.0,29.72,South,171,0.0,2.0,93,0.00,,,0.00,meteohub,2013-05-16 09:07:00,
2013-05-16 05:08:00,57.0,55.0,29.72,South,171,0.0,2.0,93,0.00,,,0.00,meteohub,2013-05-16 09:08:00,
2013-05-16 05:09:00,57.0,55.0,29.72,South,171,1.0,2.0,93,0.00,,,0.00,meteohub,2013-05-16 09:09:00,
2013-05-16 05:12:00,57.2,55.2,29.72,South,171,1.0,2.0,93,0.00,,,0.00,meteohub,2013-05-16 09:12:00,
2013-05-16 05:13:00,57.4,55.6,29.72,South,171,0.0,2.0,94,0.00,,,0.00,meteohub,2013-05-16 09:13:00,
2013-05-16 05:14:00,57.4,55.6,29.72,South,171,0.0,2.0,94,0.00,,,0.00,meteohub,2013-05-16 09:14:00,
2013-05-16 05:18:00,57.6,55.8,29.72,South,171,1.0,2.0,94,0.00,,,0.00,meteohub,2013-05-16 09:18:00,
2013-05-16 05:19:00,57.7,55.9,29.72,South,171,0.0,2.0,94,0.00,,,0.00,meteohub,2013-05-16 09:19:00,
2013-05-16 05:23:00,57.7,55.9,29.73,South,171,0.0,1.0,94,0.00,,,0.00,meteohub,2013-05-16 09:23:00,
2013-05-16 05:24:00,57.7,55.9,29.73,South,171,1.0,1.0,94,0.00,,,0.00,meteohub,2013-05-16 09:24:00,
2013-05-16 05:25:00,57.9,56.1,29.73,South,171,0.0,1.0,94,0.00,,,0.00,meteohub,2013-05-16 09:25:00,
2013-05-16 05:28:00,57.9,56.1,29.73,South,171,0.0,1.0,94,0.00,,,0.00,meteohub,2013-05-16 09:28:00,
2013-05-16 05:29:00,57.9,56.1,29.73,South,171,0.0,1.0,94,0.00,,,0.00,meteohub,2013-05-16 09:29:00,
2013-05-16 05:30:00,57.9,56.1,29.73,South,171,0.0,1.0,94,0.00,,,0.00,meteohub,2013-05-16 09:30:00,
2013-05-16 05:33:00,57.9,55.9,29.73,South,171,0.0,1.0,93,0.00,,,0.00,meteohub,2013-05-16 09:33:00,
2013-05-16 05:34:00,57.7,55.8,29.73,South,171,1.0,1.0,93,0.00,,,0.00,meteohub,2013-05-16 09:34:00,
2013-05-16 05:35:00,57.7,55.8,29.73,South,171,0.0,1.0,93,0.00,,,0.00,meteohub,2013-05-16 09:35:00,
2013-05-16 05:38:00,57.2,55.2,29.73,South,171,0.0,1.0,93,0.00,,,0.00,meteohub,2013-05-16 09:38:00,
2013-05-16 05:39:00,57.0,55.0,29.73,South,171,0.0,1.0,93,0.00,,,0.00,meteohub,2013-05-16 09:39:00,
2013-05-16 05:40:00,57.0,55.0,29.73,South,171,0.0,1.0,93,0.00,,,0.00,meteohub,2013-05-16 09:40:00,
2013-05-16 05:44:00,56.8,54.9,29.73,South,171,0.0,1.0,93,0.00,,,0.00,meteohub,2013-05-16 09:44:00,
2013-05-16 05:45:00,56.8,54.9,29.73,South,171,0.0,1.0,93,0.00,,,0.00,meteohub,2013-05-16 09:45:00,
2013-05-16 05:46:00,56.8,54.9,29.73,South,171,0.0,1.0,93,0.00,,,0.00,meteohub,2013-05-16 09:46:00,
2013-05-16 05:49:00,56.8,55.2,29.73,South,171,1.0,1.0,94,0.00,,,0.00,meteohub,2013-05-16 09:49:00,
2013-05-16 05:50:00,56.8,55.2,29.73,South,171,0.0,1.0,94,0.00,,,0.00,meteohub,2013-05-16 09:50:00,
2013-05-16 05:51:00,56.8,55.2,29.73,South,171,0.0,1.0,94,0.00,,,0.00,meteohub,2013-05-16 09:51:00,
2013-05-16 05:54:00,57.0,55.2,29.73,South,171,0.0,1.0,94,0.00,,,0.00,meteohub,2013-05-16 09:54:00,
2013-05-16 05:55:00,57.0,55.2,29.73,South,171,0.0,1.0,94,0.00,,,0.00,meteohub,2013-05-16 09:55:00,
2013-05-16 05:56:00,57.0,55.2,29.73,South,171,0.0,1.0,94,0.00,,,0.00,meteohub,2013-05-16 09:56:00,
2013-05-16 05:57:00,57.0,55.2,29.73,South,171,0.0,1.0,94,0.00,,,0.00,meteohub,2013-05-16 09:57:00,
2013-05-16 05:59:00,57.4,55.6,29.73,South,171,0.0,1.0,94,0.00,,,0.00,meteohub,2013-05-16 09:59:00,
2013-05-16 06:00:00,57.4,55.6,29.73,South,171,0.0,1.0,94,0.00,,,0.00,meteohub,2013-05-16 10:00:00,
2013-05-16 06:01:00,57.4,55.6,29.74,South,171,0.0,1.0,94,0.00,,,0.00,meteohub,2013-05-16 10:01:00,
2013-05-16 06:02:00,57.4,55.6,29.74,South,171,0.0,1.0,94,0.00,,,0.00,meteohub,2013-05-16 10:02:00,
2013-05-16 06:04:00,57.4,55.6,29.74,South,171,0.0,1.0,94,0.00,,,0.00,meteohub,2013-05-16 10:04:00,
2013-05-16 06:05:00,57.6,55.8,29.74,South,171,0.0,1.0,94,0.00,,,0.00,meteohub,2013-05-16 10:05:00,
2013-05-16 06:06:00,57.6,55.8,29.74,South,171,0.0,1.0,94,0.00,,,0.00,meteohub,2013-05-16 10:06:00,
2013-05-16 06:07:00,57.6,55.8,29.74,South,171,0.0,1.0,94,0.00,,,0.00,meteohub,2013-05-16 10:07:00,
2013-05-16 06:10:00,57.7,55.9,29.74,South,171,0.0,1.0,94,0.00,,,0.00,meteohub,2013-05-16 10:10:00,
2013-05-16 06:11:00,57.7,55.9,29.74,South,171,0.0,2.0,94,0.00,,,0.00,meteohub,2013-05-16 10:11:00,
2013-05-16 06:12:00,57.7,55.9,29.74,South,171,0.0,2.0,94,0.00,,,0.00,meteohub,2013-05-16 10:12:00,
2013-05-16 06:15:00,58.1,56.3,29.75,South,171,0.0,2.0,94,0.00,,,0.00,meteohub,2013-05-16 10:15:00,
2013-05-16 06:16:00,58.3,56.5,29.75,South,171,1.0,2.0,94,0.00,,,0.00,meteohub,2013-05-16 10:16:00,
2013-05-16 06:17:00,58.3,56.8,29.75,South,171,0.0,2.0,95,0.00,,,0.00,meteohub,2013-05-16 10:17:00,
2013-05-16 06:18:00,58.5,57.0,29.75,South,171,0.0,2.0,95,0.00,,,0.00,meteohub,2013-05-16 10:18:00,
2013-05-16 06:20:00,58.6,56.8,29.75,South,171,0.0,2.0,94,0.00,,,0.00,meteohub,2013-05-16 10:20:00,
2013-05-16 06:21:00,58.6,56.8,29.75,South,171,0.0,2.0,94,0.00,,,0.00,meteohub,2013-05-16 10:21:00,
2013-05-16 06:22:00,58.8,57.0,29.75,South,171,1.0,2.0,94,0.00,,,0.00,meteohub,2013-05-16 10:22:00,
2013-05-16 06:23:00,58.8,57.4,29.75,South,171,0.0,2.0,95,0.00,,,0.00,meteohub,2013-05-16 10:23:00,
2013-05-16 06:25:00,59.0,57.6,29.75,South,171,0.0,1.0,95,0.00,,,0.00,meteohub,2013-05-16 10:25:00,
2013-05-16 06:26:00,59.2,57.7,29.75,South,171,0.0,1.0,95,0.00,,,0.00,meteohub,2013-05-16 10:26:00,
2013-05-16 06:27:00,59.2,57.4,29.75,South,171,1.0,1.0,94,0.00,,,0.00,meteohub,2013-05-16 10:27:00,
2013-05-16 06:28:00,59.2,57.4,29.75,South,171,0.0,1.0,94,0.00,,,0.00,meteohub,2013-05-16 10:28:00,
2013-05-16 06:30:00,59.4,57.6,29.75,South,171,1.0,2.0,94,0.00,,,0.00,meteohub,2013-05-16 10:30:00,
2013-05-16 06:31:00,59.5,57.7,29.76,South,175,0.0,2.0,94,0.00,,,0.00,meteohub,2013-05-16 10:31:00,
2013-05-16 06:32:00,59.5,58.1,29.75,SW,224,0.0,2.0,95,0.00,,,0.00,meteohub,2013-05-16 10:32:00,
2013-05-16 06:33:00,59.5,58.1,29.75,SW,225,1.0,2.0,95,0.00,,,0.00,meteohub,2013-05-16 10:33:00,
2013-05-16 06:35:00,59.7,57.9,29.76,SW,225,0.0,3.0,94,0.00,,,0.00,meteohub,2013-05-16 10:35:00,
2013-05-16 06:37:00,59.7,57.9,29.76,SW,225,0.0,3.0,94,0.00,,,0.00,meteohub,2013-05-16 10:37:00,
2013-05-16 06:38:00,59.7,57.9,29.76,SW,225,0.0,3.0,94,0.00,,,0.00,meteohub,2013-05-16 10:38:00,
2013-05-16 06:39:00,59.9,58.1,29.76,SW,225,0.0,3.0,94,0.00,,,0.00,meteohub,2013-05-16 10:39:00,
2013-05-16 06:40:00,59.9,58.1,29.76,SW,225,0.0,3.0,94,0.00,,,0.00,meteohub,2013-05-16 10:40:00,
2013-05-16 06:42:00,60.1,58.3,29.76,SW,225,0.0,3.0,94,0.00,,,0.00,meteohub,2013-05-16 10:42:00,
2013-05-16 06:43:00,60.1,58.3,29.76,SW,225,1.0,3.0,94,0.00,,,0.00,meteohub,2013-05-16 10:43:00,
2013-05-16 06:44:00,60.1,58.3,29.76,SW,225,1.0,3.0,94,0.00,,,0.00,meteohub,2013-05-16 10:44:00,
2013-05-16 06:45:00,60.1,58.3,29.76,SW,225,0.0,3.0,94,0.00,,,0.00,meteohub,2013-05-16 10:45:00,
2013-05-16 06:47:00,60.3,58.5,29.76,SW,225,1.0,3.0,94,0.00,,,0.00,meteohub,2013-05-16 10:47:00,
2013-05-16 06:48:00,60.3,58.5,29.76,WSW,240,1.0,3.0,94,0.00,,,0.00,meteohub,2013-05-16 10:48:00,
2013-05-16 06:49:00,60.3,58.5,29.76,WSW,248,1.0,3.0,94,0.00,,,0.00,meteohub,2013-05-16 10:49:00,
2013-05-16 06:52:00,60.4,58.6,29.76,WNW,301,2.0,3.0,94,0.00,,,0.00,meteohub,2013-05-16 10:52:00,
2013-05-16 06:53:00,60.4,58.6,29.77,WNW,300,0.0,3.0,94,0.00,,,0.00,meteohub,2013-05-16 10:53:00,
2013-05-16 06:54:00,60.4,58.6,29.77,WNW,300,2.0,3.0,94,0.00,,,0.00,meteohub,2013-05-16 10:54:00,
2013-05-16 06:58:00,60.6,58.8,29.77,WNW,292,1.0,3.0,94,0.00,,,0.00,meteohub,2013-05-16 10:58:00,
2013-05-16 06:59:00,60.8,59.0,29.77,WNW,291,0.0,3.0,94,0.00,,,0.00,meteohub,2013-05-16 10:59:00,
2013-05-16 07:00:00,60.8,59.0,29.77,WNW,294,1.0,3.0,94,0.00,,,0.00,meteohub,2013-05-16 11:00:00,
2013-05-16 07:03:00,61.0,59.2,29.77,WNW,294,0.0,3.0,94,0.00,,,0.00,meteohub,2013-05-16 11:03:00,
2013-05-16 07:04:00,61.0,59.2,29.77,WNW,294,0.0,3.0,94,0.00,,,0.00,meteohub,2013-05-16 11:04:00,
2013-05-16 07:05:00,61.0,59.2,29.77,WNW,293,1.0,3.0,94,0.00,,,0.00,meteohub,2013-05-16 11:05:00,
2013-05-16 07:08:00,61.2,59.4,29.78,WNW,293,0.0,3.0,94,0.00,,,0.00,meteohub,2013-05-16 11:08:00,
2013-05-16 07:09:00,61.2,59.4,29.78,WNW,293,1.0,3.0,94,0.00,,,0.00,meteohub,2013-05-16 11:09:00,
2013-05-16 07:10:00,61.2,59.4,29.78,WNW,293,1.0,3.0,94,0.00,,,0.00,meteohub,2013-05-16 11:10:00,
2013-05-16 07:13:00,61.3,59.5,29.78,WNW,293,2.0,3.0,94,0.00,,,0.00,meteohub,2013-05-16 11:13:00,
2013-05-16 07:14:00,61.3,59.5,29.78,WNW,293,2.0,3.0,94,0.00,,,0.00,meteohub,2013-05-16 11:14:00,
2013-05-16 07:15:00,61.3,59.5,29.78,WNW,293,0.0,3.0,94,0.00,,,0.00,meteohub,2013-05-16 11:15:00,
2013-05-16 07:18:00,61.5,59.7,29.78,West,280,2.0,2.0,94,0.00,,,0.00,meteohub,2013-05-16 11:18:00,
2013-05-16 07:19:00,61.5,59.7,29.78,West,280,0.0,2.0,94,0.00,,,0.00,meteohub,2013-05-16 11:19:00,
2013-05-16 07:21:00,61.5,59.7,29.78,West,278,1.0,3.0,94,0.00,,,0.00,meteohub,2013-05-16 11:21:00,
2013-05-16 07:23:00,61.7,59.7,29.78,West,279,2.0,3.0,93,0.00,,,0.00,meteohub,2013-05-16 11:23:00,
2013-05-16 07:25:00,61.7,59.7,29.78,West,279,0.0,3.0,93,0.00,,,0.00,meteohub,2013-05-16 11:25:00,
2013-05-16 07:26:00,61.7,59.7,29.78,West,279,1.0,3.0,93,0.00,,,0.00,meteohub,2013-05-16 11:26:00,
2013-05-16 07:29:00,61.9,59.9,29.78,West,279,1.0,3.0,93,0.00,,,0.00,meteohub,2013-05-16 11:29:00,
2013-05-16 07:30:00,61.9,59.9,29.78,West,279,1.0,3.0,93,0.00,,,0.00,meteohub,2013-05-16 11:30:00,
2013-05-16 07:31:00,61.9,59.9,29.78,West,279,1.0,3.0,93,0.00,,,0.00,meteohub,2013-05-16 11:31:00,
2013-05-16 07:32:00,62.1,60.1,29.78,West,279,1.0,3.0,93,0.00,,,0.00,meteohub,2013-05-16 11:32:00,
2013-05-16 07:34:00,62.1,60.1,29.78,West,279,1.0,3.0,93,0.00,,,0.00,meteohub,2013-05-16 11:34:00,
2013-05-16 07:36:00,62.2,60.3,29.78,West,279,3.0,3.0,93,0.00,,,0.00,meteohub,2013-05-16 11:36:00,
2013-05-16 07:37:00,62.1,60.1,29.78,West,279,1.0,2.0,93,0.00,,,0.00,meteohub,2013-05-16 11:37:00,
2013-05-16 07:39:00,62.2,60.3,29.78,West,279,0.0,2.0,93,0.00,,,0.00,meteohub,2013-05-16 11:39:00,
2013-05-16 07:41:00,62.4,60.4,29.78,West,279,0.0,3.0,93,0.00,,,0.00,meteohub,2013-05-16 11:41:00,
2013-05-16 07:42:00,62.4,60.4,29.78,West,279,0.0,3.0,93,0.00,,,0.00,meteohub,2013-05-16 11:42:00,
2013-05-16 07:44:00,62.4,60.4,29.78,West,279,0.0,3.0,93,0.00,,,0.00,meteohub,2013-05-16 11:44:00,
2013-05-16 07:46:00,62.6,60.3,29.78,West,279,1.0,3.0,92,0.00,,,0.00,meteohub,2013-05-16 11:46:00,
2013-05-16 07:47:00,62.6,60.3,29.79,West,279,2.0,3.0,92,0.00,,,0.00,meteohub,2013-05-16 11:47:00,
2013-05-16 07:49:00,62.8,60.4,29.79,West,279,0.0,3.0,92,0.00,,,0.00,meteohub,2013-05-16 11:49:00,
2013-05-16 07:52:00,63.0,60.6,29.79,West,279,0.0,3.0,92,0.00,,,0.00,meteohub,2013-05-16 11:52:00,
2013-05-16 07:53:00,63.0,60.6,29.79,West,279,1.0,3.0,92,0.00,,,0.00,meteohub,2013-05-16 11:53:00,
2013-05-16 07:55:00,63.1,60.4,29.79,West,279,1.0,3.0,91,0.00,,,0.00,meteohub,2013-05-16 11:55:00,
2013-05-16 07:57:00,63.3,60.6,29.79,West,279,0.0,3.0,91,0.00,,,0.00,meteohub,2013-05-16 11:57:00,
2013-05-16 07:58:00,63.3,60.6,29.79,West,279,0.0,3.0,91,0.00,,,0.00,meteohub,2013-05-16 11:58:00,
2013-05-16 07:59:00,63.5,60.8,29.79,West,279,0.0,3.0,91,0.00,,,0.00,meteohub,2013-05-16 11:59:00,
2013-05-16 08:01:00,63.7,61.0,29.79,West,279,0.0,2.0,91,0.00,,,0.00,meteohub,2013-05-16 12:01:00,
2013-05-16 08:02:00,63.9,61.2,29.79,West,279,0.0,2.0,91,0.00,,,0.00,meteohub,2013-05-16 12:02:00,
2013-05-16 08:03:00,63.9,61.2,29.79,West,279,0.0,2.0,91,0.00,,,0.00,meteohub,2013-05-16 12:03:00,
2013-05-16 08:04:00,64.0,61.3,29.79,West,279,0.0,2.0,91,0.00,,,0.00,meteohub,2013-05-16 12:04:00,
2013-05-16 08:06:00,64.2,61.5,29.79,West,279,0.0,2.0,91,0.00,,,0.00,meteohub,2013-05-16 12:06:00,
2013-05-16 08:07:00,64.4,61.3,29.79,West,279,0.0,2.0,90,0.00,,,0.00,meteohub,2013-05-16 12:07:00,
2013-05-16 08:08:00,64.6,61.5,29.79,West,279,0.0,2.0,90,0.00,,,0.00,meteohub,2013-05-16 12:08:00,
2013-05-16 08:09:00,64.6,61.5,29.79,West,279,1.0,2.0,90,0.00,,,0.00,meteohub,2013-05-16 12:09:00,
2013-05-16 08:11:00,64.9,61.7,29.79,West,279,0.0,2.0,89,0.00,,,0.00,meteohub,2013-05-16 12:11:00,
2013-05-16 08:12:00,64.9,61.7,29.79,West,279,0.0,2.0,89,0.00,,,0.00,meteohub,2013-05-16 12:12:00,
2013-05-16 08:14:00,65.3,62.1,29.79,West,279,0.0,2.0,89,0.00,,,0.00,meteohub,2013-05-16 12:14:00,
2013-05-16 08:16:00,65.7,62.1,29.79,West,281,1.0,3.0,88,0.00,,,0.00,meteohub,2013-05-16 12:16:00,
2013-05-16 08:17:00,65.7,62.1,29.79,West,281,0.0,3.0,88,0.00,,,0.00,meteohub,2013-05-16 12:17:00,
2013-05-16 08:18:00,65.8,62.2,29.79,West,281,0.0,3.0,88,0.00,,,0.00,meteohub,2013-05-16 12:18:00,
2013-05-16 08:19:00,65.8,61.9,29.79,West,281,0.0,3.0,87,0.00,,,0.00,meteohub,2013-05-16 12:19:00,
2013-05-16 08:22:00,66.4,62.4,29.79,West,281,0.0,3.0,87,0.00,,,0.00,meteohub,2013-05-16 12:22:00,
2013-05-16 08:24:00,66.7,62.4,29.80,WNW,284,0.0,3.0,86,0.00,,,0.00,meteohub,2013-05-16 12:24:00,
2013-05-16 08:26:00,66.9,62.2,29.79,WNW,284,0.0,3.0,85,0.00,,,0.00,meteohub,2013-05-16 12:26:00,
2013-05-16 08:27:00,67.1,62.4,29.79,WNW,284,0.0,3.0,85,0.00,,,0.00,meteohub,2013-05-16 12:27:00,
2013-05-16 08:28:00,67.3,62.2,29.79,WNW,284,1.0,3.0,84,0.00,,,0.00,meteohub,2013-05-16 12:28:00,
2013-05-16 08:29:00,67.5,62.4,29.79,WNW,284,0.0,3.0,84,0.00,,,0.00,meteohub,2013-05-16 12:29:00,
2013-05-16 08:30:00,67.5,61.7,29.79,WNW,288,1.0,3.0,82,0.00,,,0.00,meteohub,2013-05-16 12:30:00,
2013-05-16 08:31:00,67.5,61.3,29.79,WNW,288,0.0,3.0,81,0.00,,,0.00,meteohub,2013-05-16 12:31:00,
2013-05-16 08:32:00,67.5,61.3,29.79,WNW,288,0.0,3.0,81,0.00,,,0.00,meteohub,2013-05-16 12:32:00,
2013-05-16 08:33:00,67.5,61.3,29.80,WNW,288,0.0,3.0,81,0.00,,,0.00,meteohub,2013-05-16 12:33:00,
2013-05-16 08:34:00,67.5,61.3,29.80,WNW,288,0.0,3.0,81,0.00,,,0.00,meteohub,2013-05-16 12:34:00,
2013-05-16 08:35:00,67.6,61.5,29.80,WNW,288,0.0,3.0,81,0.00,,,0.00,meteohub,2013-05-16 12:35:00,
2013-05-16 08:36:00,67.6,61.2,29.80,WNW,288,0.0,3.0,80,0.00,,,0.00,meteohub,2013-05-16 12:36:00,
2013-05-16 08:37:00,67.8,61.3,29.79,WNW,288,1.0,3.0,80,0.00,,,0.00,meteohub,2013-05-16 12:37:00,
2013-05-16 08:39:00,67.8,60.3,29.79,NW,315,0.0,3.0,77,0.00,,,0.00,meteohub,2013-05-16 12:39:00,
2013-05-16 08:41:00,67.8,60.3,29.80,NW,315,1.0,3.0,77,0.00,,,0.00,meteohub,2013-05-16 12:41:00,
2013-05-16 08:42:00,67.8,59.9,29.80,NW,315,0.0,3.0,76,0.00,,,0.00,meteohub,2013-05-16 12:42:00,
2013-05-16 08:44:00,67.8,60.3,29.80,NW,315,0.0,3.0,77,0.00,,,0.00,meteohub,2013-05-16 12:44:00,
2013-05-16 08:45:00,67.8,59.9,29.80,NW,316,1.0,3.0,76,0.00,,,0.00,meteohub,2013-05-16 12:45:00,
2013-05-16 08:46:00,67.8,59.9,29.80,NW,316,0.0,3.0,76,0.00,,,0.00,meteohub,2013-05-16 12:46:00,
2013-05-16 08:47:00,68.0,60.1,29.80,NW,316,0.0,3.0,76,0.00,,,0.00,meteohub,2013-05-16 12:47:00,
2013-05-16 08:48:00,68.2,60.3,29.80,NW,316,0.0,3.0,76,0.00,,,0.00,meteohub,2013-05-16 12:48:00,
2013-05-16 08:49:00,68.2,59.9,29.81,North,355,2.0,3.0,75,0.00,,,0.00,meteohub,2013-05-16 12:49:00,
2013-05-16 08:51:00,68.4,59.7,29.81,North,5,0.0,3.0,74,0.00,,,0.00,meteohub,2013-05-16 12:51:00,
2013-05-16 08:52:00,68.5,59.9,29.81,North,5,1.0,3.0,74,0.00,,,0.00,meteohub,2013-05-16 12:52:00,
2013-05-16 08:53:00,68.5,59.9,29.81,North,5,0.0,3.0,74,0.00,,,0.00,meteohub,2013-05-16 12:53:00,
2013-05-16 08:54:00,68.7,60.1,29.81,North,5,0.0,3.0,74,0.00,,,0.00,meteohub,2013-05-16 12:54:00,
2013-05-16 08:57:00,69.1,59.7,29.81,North,5,0.0,5.0,72,0.00,,,0.00,meteohub,2013-05-16 12:57:00,
2013-05-16 08:58:00,69.1,59.7,29.81,North,5,1.0,5.0,72,0.00,,,0.00,meteohub,2013-05-16 12:58:00,
2013-05-16 08:59:00,69.1,59.4,29.81,North,5,0.0,5.0,71,0.00,,,0.00,meteohub,2013-05-16 12:59:00,
2013-05-16 09:03:00,69.4,59.5,29.81,North,5,0.0,5.0,71,0.00,,,0.00,meteohub,2013-05-16 13:03:00,
2013-05-16 09:04:00,69.6,59.7,29.81,North,5,0.0,5.0,71,0.00,,,0.00,meteohub,2013-05-16 13:04:00,
2013-05-16 09:05:00,69.8,59.9,29.81,North,5,0.0,3.0,71,0.00,,,0.00,meteohub,2013-05-16 13:05:00,
2013-05-16 09:08:00,70.2,59.5,29.81,North,0,1.0,3.0,69,0.00,,,0.00,meteohub,2013-05-16 13:08:00,
2013-05-16 09:09:00,70.3,59.7,29.81,North,0,0.0,3.0,69,0.00,,,0.00,meteohub,2013-05-16 13:09:00,
2013-05-16 09:11:00,70.5,59.0,29.81,NNE,24,4.0,4.0,67,0.00,,,0.00,meteohub,2013-05-16 13:11:00,
2013-05-16 09:13:00,70.5,59.0,29.81,NNE,23,3.0,3.0,67,0.00,,,0.00,meteohub,2013-05-16 13:13:00,
2013-05-16 09:14:00,70.5,59.0,29.81,NNE,23,1.0,3.0,67,0.00,,,0.00,meteohub,2013-05-16 13:14:00,
2013-05-16 09:16:00,70.9,59.0,29.81,NNE,23,0.0,5.0,66,0.00,,,0.00,meteohub,2013-05-16 13:16:00,
2013-05-16 09:18:00,71.1,58.6,29.81,NNE,23,0.0,5.0,65,0.00,,,0.00,meteohub,2013-05-16 13:18:00,
2013-05-16 09:19:00,71.1,58.6,29.82,NNE,23,2.0,5.0,65,0.00,,,0.00,meteohub,2013-05-16 13:19:00,
2013-05-16 09:20:00,71.1,57.7,29.82,NNE,23,0.0,5.0,63,0.00,,,0.00,meteohub,2013-05-16 13:20:00,
2013-05-16 09:21:00,71.1,57.4,29.82,NNE,23,1.0,5.0,62,0.00,,,0.00,meteohub,2013-05-16 13:21:00,
2013-05-16 09:23:00,71.2,57.0,29.82,NNE,26,2.0,5.0,61,0.00,,,0.00,meteohub,2013-05-16 13:23:00,
2013-05-16 09:24:00,71.2,56.1,29.82,NNE,16,4.0,5.0,59,0.00,,,0.00,meteohub,2013-05-16 13:24:00,
2013-05-16 09:25:00,71.2,56.1,29.82,NNE,14,2.0,5.0,59,0.00,,,0.00,meteohub,2013-05-16 13:25:00,
2013-05-16 09:27:00,71.4,55.9,29.82,NNE,17,1.0,5.0,58,0.00,,,0.00,meteohub,2013-05-16 13:27:00,
2013-05-16 09:29:00,71.6,55.0,29.82,NNE,18,4.0,5.0,56,0.00,,,0.00,meteohub,2013-05-16 13:29:00,
2013-05-16 09:30:00,71.6,55.0,29.82,NNE,16,3.0,5.0,56,0.00,,,0.00,meteohub,2013-05-16 13:30:00,
2013-05-16 09:32:00,71.6,55.0,29.83,NNE,14,3.0,5.0,56,0.00,,,0.00,meteohub,2013-05-16 13:32:00,
2013-05-16 09:34:00,71.6,55.6,29.83,NNE,16,0.0,5.0,57,0.00,,,0.00,meteohub,2013-05-16 13:34:00,
2013-05-16 09:35:00,71.6,55.6,29.83,NNE,16,2.0,5.0,57,0.00,,,0.00,meteohub,2013-05-16 13:35:00,
2013-05-16 09:36:00,71.6,55.6,29.83,NNE,16,1.0,5.0,57,0.00,,,0.00,meteohub,2013-05-16 13:36:00,
2013-05-16 09:37:00,71.6,56.1,29.83,NNE,15,0.0,5.0,58,0.00,,,0.00,meteohub,2013-05-16 13:37:00,
2013-05-16 09:39:00,71.6,56.1,29.84,NNE,13,0.0,5.0,58,0.00,,,0.00,meteohub,2013-05-16 13:39:00,
2013-05-16 09:40:00,71.4,56.3,29.84,NNE,13,0.0,5.0,59,0.00,,,0.00,meteohub,2013-05-16 13:40:00,
2013-05-16 09:41:00,71.4,56.3,29.84,North,5,1.0,5.0,59,0.00,,,0.00,meteohub,2013-05-16 13:41:00,
2013-05-16 09:42:00,71.4,55.9,29.84,NNW,342,1.0,5.0,58,0.00,,,0.00,meteohub,2013-05-16 13:42:00,
2013-05-16 09:44:00,71.4,56.3,29.84,NNW,336,0.0,5.0,59,0.00,,,0.00,meteohub,2013-05-16 13:44:00,
2013-05-16 09:45:00,71.4,56.3,29.84,NNW,336,0.0,4.0,59,0.00,,,0.00,meteohub,2013-05-16 13:45:00,
2013-05-16 09:46:00,71.4,56.3,29.84,NNW,336,1.0,4.0,59,0.00,,,0.00,meteohub,2013-05-16 13:46:00,
2013-05-16 09:48:00,71.4,55.9,29.84,NNW,336,0.0,4.0,58,0.00,,,0.00,meteohub,2013-05-16 13:48:00,
2013-05-16 09:49:00,71.4,55.4,29.84,NNW,336,2.0,4.0,57,0.00,,,0.00,meteohub,2013-05-16 13:49:00,
2013-05-16 09:51:00,71.2,54.7,29.83,North,0,2.0,3.0,56,0.00,,,0.00,meteohub,2013-05-16 13:51:00,
2013-05-16 09:53:00,71.4,54.9,29.83,North,0,0.0,3.0,56,0.00,,,0.00,meteohub,2013-05-16 13:53:00,
2013-05-16 09:55:00,71.4,54.5,29.83,North,0,1.0,3.0,55,0.00,,,0.00,meteohub,2013-05-16 13:55:00,
2013-05-16 09:56:00,71.4,54.5,29.83,North,0,3.0,4.0,55,0.00,,,0.00,meteohub,2013-05-16 13:56:00,
2013-05-16 09:57:00,71.6,54.1,29.83,North,0,1.0,4.0,54,0.00,,,0.00,meteohub,2013-05-16 13:57:00,
2013-05-16 09:58:00,71.8,54.3,29.83,North,0,1.0,4.0,54,0.00,,,0.00,meteohub,2013-05-16 13:58:00,
2013-05-16 10:00:00,72.0,54.3,29.83,North,0,0.0,4.0,54,0.00,,,0.00,meteohub,2013-05-16 14:00:00,
2013-05-16 10:01:00,72.0,54.3,29.83,North,0,1.0,4.0,54,0.00,,,0.00,meteohub,2013-05-16 14:01:00,
2013-05-16 10:02:00,72.1,54.1,29.83,North,0,1.0,4.0,53,0.00,,,0.00,meteohub,2013-05-16 14:02:00,
2013-05-16 10:03:00,72.1,54.1,29.83,North,0,0.0,4.0,53,0.00,,,0.00,meteohub,2013-05-16 14:03:00,
2013-05-16 10:05:00,72.1,53.6,29.83,North,5,3.0,4.0,52,0.00,,,0.00,meteohub,2013-05-16 14:05:00,
2013-05-16 10:06:00,72.1,53.6,29.84,North,5,2.0,4.0,52,0.00,,,0.00,meteohub,2013-05-16 14:06:00,
2013-05-16 10:07:00,72.0,54.0,29.83,NNE,12,2.0,4.0,53,0.00,,,0.00,meteohub,2013-05-16 14:07:00,
2013-05-16 10:08:00,71.6,53.6,29.83,NNE,12,0.0,4.0,53,0.00,,,0.00,meteohub,2013-05-16 14:08:00,
2013-05-16 10:09:00,71.4,53.4,29.84,NNE,12,0.0,4.0,53,0.00,,,0.00,meteohub,2013-05-16 14:09:00,
2013-05-16 10:10:00,71.2,53.2,29.84,NNE,12,0.0,4.0,53,0.00,,,0.00,meteohub,2013-05-16 14:10:00,
2013-05-16 10:11:00,71.2,53.2,29.84,NNE,12,2.0,4.0,53,0.00,,,0.00,meteohub,2013-05-16 14:11:00,
2013-05-16 10:12:00,71.2,53.8,29.84,NNE,12,2.0,4.0,54,0.00,,,0.00,meteohub,2013-05-16 14:12:00,
2013-05-16 10:13:00,71.1,53.1,29.83,NNE,12,1.0,4.0,53,0.00,,,0.00,meteohub,2013-05-16 14:13:00,
2013-05-16 10:14:00,71.1,53.6,29.83,NNE,12,2.0,4.0,54,0.00,,,0.00,meteohub,2013-05-16 14:14:00,
2013-05-16 10:15:00,70.9,54.0,29.83,NNE,13,2.0,3.0,55,0.00,,,0.00,meteohub,2013-05-16 14:15:00,
2013-05-16 10:17:00,70.5,53.6,29.83,NNE,13,2.0,3.0,55,0.00,,,0.00,meteohub,2013-05-16 14:17:00,
2013-05-16 10:19:00,70.2,53.8,29.83,NNE,13,1.0,3.0,56,0.00,,,0.00,meteohub,2013-05-16 14:19:00,
2013-05-16 10:21:00,69.6,54.1,29.83,NE,54,4.0,4.0,58,0.00,,,0.00,meteohub,2013-05-16 14:21:00,
2013-05-16 10:23:00,68.5,54.5,29.82,East,90,5.0,5.0,61,0.00,,,0.00,meteohub,2013-05-16 14:23:00,
2013-05-16 10:24:00,68.4,54.9,29.82,East,90,2.0,3.0,62,0.00,,,0.00,meteohub,2013-05-16 14:24:00,
2013-05-16 10:26:00,67.5,55.2,29.82,East,89,2.0,6.0,65,0.00,,,0.00,meteohub,2013-05-16 14:26:00,
2013-05-16 10:27:00,66.9,55.6,29.81,East,85,2.0,6.0,67,0.00,,,0.00,meteohub,2013-05-16 14:27:00,
2013-05-16 10:28:00,66.4,55.6,29.81,East,94,3.0,6.0,68,0.00,,,0.00,meteohub,2013-05-16 14:28:00,
2013-05-16 10:29:00,66.0,55.2,29.81,East,98,0.0,6.0,68,0.00,,,0.00,meteohub,2013-05-16 14:29:00,
2013-05-16 10:30:00,65.8,55.4,29.81,ESE,105,1.0,6.0,69,0.00,,,0.00,meteohub,2013-05-16 14:30:00,
2013-05-16 10:31:00,65.7,55.6,29.81,SE,124,4.0,6.0,70,0.00,,,0.00,meteohub,2013-05-16 14:31:00,
2013-05-16 10:32:00,65.5,55.8,29.81,East,94,3.0,6.0,71,0.00,,,0.00,meteohub,2013-05-16 14:32:00,
2013-05-16 10:34:00,64.9,55.4,29.81,East,101,1.0,6.0,71,0.00,,,0.00,meteohub,2013-05-16 14:34:00,
2013-05-16 10:35:00,64.9,55.4,29.81,East,89,2.0,6.0,71,0.00,,,0.00,meteohub,2013-05-16 14:35:00,
2013-05-16 10:36:00,64.8,55.6,29.81,East,94,1.0,6.0,72,0.00,,,0.00,meteohub,2013-05-16 14:36:00,
2013-05-16 10:37:00,64.8,55.6,29.81,East,81,1.0,6.0,72,0.00,,,0.00,meteohub,2013-05-16 14:37:00,
2013-05-16 10:39:00,64.6,55.8,29.81,ESE,107,1.0,6.0,73,0.00,,,0.00,meteohub,2013-05-16 14:39:00,
2013-05-16 10:40:00,64.4,55.6,29.81,ESE,105,1.0,6.0,73,0.00,,,0.00,meteohub,2013-05-16 14:40:00,
2013-05-16 10:42:00,64.2,55.4,29.81,SE,124,4.0,5.0,73,0.00,,,0.00,meteohub,2013-05-16 14:42:00,
2013-05-16 10:44:00,64.0,55.6,29.81,East,100,1.0,5.0,74,0.00,,,0.00,meteohub,2013-05-16 14:44:00,
2013-05-16 10:45:00,64.0,55.6,29.81,ESE,103,0.0,5.0,74,0.00,,,0.00,meteohub,2013-05-16 14:45:00,
2013-05-16 10:46:00,64.0,55.6,29.82,ESE,102,0.0,5.0,74,0.00,,,0.00,meteohub,2013-05-16 14:46:00,
2013-05-16 10:47:00,64.0,55.6,29.82,ESE,103,0.0,5.0,74,0.00,,,0.00,meteohub,2013-05-16 14:47:00,
2013-05-16 10:50:00,64.0,55.9,29.81,ESE,103,1.0,5.0,75,0.00,,,0.00,meteohub,2013-05-16 14:50:00,
2013-05-16 10:51:00,64.2,56.1,29.81,ESE,105,0.0,5.0,75,0.00,,,0.00,meteohub,2013-05-16 14:51:00,
2013-05-16 10:53:00,64.4,56.3,29.81,East,101,0.0,5.0,75,0.00,,,0.00,meteohub,2013-05-16 14:53:00,
2013-05-16 10:55:00,64.6,56.5,29.81,East,89,2.0,5.0,75,0.00,,,0.00,meteohub,2013-05-16 14:55:00,
2013-05-16 10:56:00,64.8,56.7,29.81,ENE,68,1.0,5.0,75,0.00,,,0.00,meteohub,2013-05-16 14:56:00,
2013-05-16 10:58:00,64.9,56.5,29.81,ESE,104,4.0,5.0,74,0.00,,,0.00,meteohub,2013-05-16 14:58:00,
2013-05-16 10:59:00,64.9,56.1,29.81,East,85,0.0,5.0,73,0.00,,,0.00,meteohub,2013-05-16 14:59:00,
2013-05-16 11:00:00,64.9,56.1,29.81,East,88,0.0,5.0,73,0.00,,,0.00,meteohub,2013-05-16 15:00:00,
2013-05-16 11:01:00,64.9,56.1,29.81,ESE,106,1.0,6.0,73,0.00,,,0.00,meteohub,2013-05-16 15:01:00,
2013-05-16 11:02:00,64.9,56.1,29.81,ESE,106,0.0,6.0,73,0.00,,,0.00,meteohub,2013-05-16 15:02:00,
2013-05-16 11:03:00,64.9,56.1,29.81,ESE,112,3.0,6.0,73,0.00,,,0.00,meteohub,2013-05-16 15:03:00,
2013-05-16 11:05:00,64.9,56.1,29.81,East,101,3.0,6.0,73,0.00,,,0.00,meteohub,2013-05-16 15:05:00,
2013-05-16 11:06:00,64.8,55.9,29.81,ENE,67,3.0,6.0,73,0.00,,,0.00,meteohub,2013-05-16 15:06:00,
2013-05-16 11:07:00,64.8,55.9,29.81,ENE,73,2.0,6.0,73,0.00,,,0.00,meteohub,2013-05-16 15:07:00,
2013-05-16 11:09:00,64.4,55.9,29.81,SSE,150,2.0,6.0,74,0.00,,,0.00,meteohub,2013-05-16 15:09:00,
2013-05-16 11:10:00,64.4,55.9,29.81,ESE,121,0.0,6.0,74,0.00,,,0.00,meteohub,2013-05-16 15:10:00,
2013-05-16 11:12:00,64.2,55.8,29.81,ESE,119,0.0,6.0,74,0.00,,,0.00,meteohub,2013-05-16 15:12:00,
2013-05-16 11:14:00,64.6,56.5,29.81,SE,138,0.0,6.0,75,0.00,,,0.00,meteohub,2013-05-16 15:14:00,
2013-05-16 11:15:00,64.6,56.5,29.81,SSE,157,2.0,5.0,75,0.00,,,0.00,meteohub,2013-05-16 15:15:00,
2013-05-16 11:16:00,64.6,56.5,29.81,South,176,2.0,5.0,75,0.00,,,0.00,meteohub,2013-05-16 15:16:00,
2013-05-16 11:17:00,64.4,56.3,29.81,SSE,166,3.0,5.0,75,0.00,,,0.00,meteohub,2013-05-16 15:17:00,
2013-05-16 11:19:00,64.0,55.6,29.81,SSE,167,3.0,5.0,74,0.00,,,0.00,meteohub,2013-05-16 15:19:00,
2013-05-16 11:20:00,63.9,55.8,29.81,SSE,159,2.0,5.0,75,0.00,,,0.00,meteohub,2013-05-16 15:20:00,
2013-05-16 11:21:00,63.9,55.8,29.81,SSE,164,2.0,5.0,75,0.00,,,0.00,meteohub,2013-05-16 15:21:00,
2013-05-16 11:22:00,63.7,55.6,29.81,SSE,161,2.0,5.0,75,0.00,,,0.00,meteohub,2013-05-16 15:22:00,
2013-05-16 11:23:00,63.5,55.4,29.81,SSE,157,3.0,5.0,75,0.00,,,0.00,meteohub,2013-05-16 15:23:00,
2013-05-16 11:24:00,63.3,55.2,29.81,SSE,152,2.0,5.0,75,0.00,,,0.00,meteohub,2013-05-16 15:24:00,
2013-05-16 11:26:00,63.3,55.6,29.81,SE,140,1.0,5.0,76,0.00,,,0.00,meteohub,2013-05-16 15:26:00,
2013-05-16 11:27:00,63.3,55.6,29.81,SE,130,1.0,5.0,76,0.00,,,0.00,meteohub,2013-05-16 15:27:00,
2013-05-16 11:29:00,63.3,55.6,29.81,SSE,150,1.0,5.0,76,0.00,,,0.00,meteohub,2013-05-16 15:29:00,
2013-05-16 11:30:00,63.5,55.8,29.81,SE,145,1.0,5.0,76,0.00,,,0.00,meteohub,2013-05-16 15:30:00,
2013-05-16 11:31:00,63.7,55.9,29.81,SSE,158,1.0,5.0,76,0.00,,,0.00,meteohub,2013-05-16 15:31:00,
2013-05-16 11:33:00,63.7,55.6,29.81,SSE,166,3.0,5.0,75,0.00,,,0.00,meteohub,2013-05-16 15:33:00,
2013-05-16 11:34:00,63.9,55.4,29.81,South,169,1.0,5.0,74,0.00,,,0.00,meteohub,2013-05-16 15:34:00,
2013-05-16 11:35:00,64.0,55.6,29.81,South,169,0.0,4.0,74,0.00,,,0.00,meteohub,2013-05-16 15:35:00,
2013-05-16 11:37:00,64.2,55.8,29.81,South,169,0.0,4.0,74,0.00,,,0.00,meteohub,2013-05-16 15:37:00,
2013-05-16 11:38:00,64.6,56.1,29.81,SSE,167,1.0,4.0,74,0.00,,,0.00,meteohub,2013-05-16 15:38:00,
2013-05-16 11:39:00,64.9,56.1,29.81,South,176,1.0,4.0,73,0.00,,,0.00,meteohub,2013-05-16 15:39:00,
2013-05-16 11:40:00,65.1,55.9,29.81,SSE,167,1.0,4.0,72,0.00,,,0.00,meteohub,2013-05-16 15:40:00,
2013-05-16 11:42:00,65.5,56.3,29.81,SSE,165,0.0,4.0,72,0.00,,,0.00,meteohub,2013-05-16 15:42:00,
2013-05-16 11:43:00,65.5,55.8,29.81,SSE,152,0.0,4.0,71,0.00,,,0.00,meteohub,2013-05-16 15:43:00,
2013-05-16 11:44:00,66.0,56.3,29.81,ENE,69,0.0,4.0,71,0.00,,,0.00,meteohub,2013-05-16 15:44:00,
2013-05-16 11:46:00,66.4,56.3,29.81,SE,132,1.0,4.0,70,0.00,,,0.00,meteohub,2013-05-16 15:46:00,
2013-05-16 11:47:00,66.4,56.3,29.81,South,178,2.0,4.0,70,0.00,,,0.00,meteohub,2013-05-16 15:47:00,
2013-05-16 11:48:00,66.6,56.5,29.81,South,178,0.0,4.0,70,0.00,,,0.00,meteohub,2013-05-16 15:48:00,
2013-05-16 11:49:00,66.6,56.5,29.81,South,173,1.0,4.0,70,0.00,,,0.00,meteohub,2013-05-16 15:49:00,
2013-05-16 11:51:00,66.7,56.7,29.81,SE,140,2.0,4.0,70,0.00,,,0.00,meteohub,2013-05-16 15:51:00,
2013-05-16 11:52:00,66.7,56.3,29.81,SSE,157,1.0,4.0,69,0.00,,,0.00,meteohub,2013-05-16 15:52:00,
2013-05-16 11:53:00,66.9,56.5,29.81,SSE,153,1.0,4.0,69,0.00,,,0.00,meteohub,2013-05-16 15:53:00,
2013-05-16 11:54:00,66.9,55.9,29.81,SSE,155,2.0,4.0,68,0.00,,,0.00,meteohub,2013-05-16 15:54:00,
2013-05-16 11:55:00,66.9,55.9,29.81,South,170,1.0,4.0,68,0.00,,,0.00,meteohub,2013-05-16 15:55:00,
2013-05-16 11:57:00,67.1,56.1,29.81,South,176,3.0,4.0,68,0.00,,,0.00,meteohub,2013-05-16 15:57:00,
2013-05-16 11:58:00,66.9,55.6,29.81,SSE,163,1.0,4.0,67,0.00,,,0.00,meteohub,2013-05-16 15:58:00,
2013-05-16 11:59:00,66.9,55.9,29.81,SSE,163,0.0,4.0,68,0.00,,,0.00,meteohub,2013-05-16 15:59:00,
2013-05-16 12:00:00,67.1,56.7,29.81,ESE,108,0.0,4.0,69,0.00,,,0.00,meteohub,2013-05-16 16:00:00,
2013-05-16 12:02:00,67.5,57.0,29.81,ESE,112,1.0,4.0,69,0.00,,,0.00,meteohub,2013-05-16 16:02:00,
2013-05-16 12:03:00,67.6,57.0,29.81,SSE,166,2.0,4.0,69,0.00,,,0.00,meteohub,2013-05-16 16:03:00,
2013-05-16 12:04:00,67.6,56.7,29.81,SSE,165,1.0,4.0,68,0.00,,,0.00,meteohub,2013-05-16 16:04:00,
2013-05-16 12:05:00,67.6,56.7,29.81,SSE,166,2.0,4.0,68,0.00,,,0.00,meteohub,2013-05-16 16:05:00,
2013-05-16 12:07:00,67.6,56.3,29.81,SE,128,1.0,4.0,67,0.00,,,0.00,meteohub,2013-05-16 16:07:00,
2013-05-16 12:08:00,67.6,56.3,29.81,SSE,159,2.0,4.0,67,0.00,,,0.00,meteohub,2013-05-16 16:08:00,
2013-05-16 12:09:00,67.5,56.1,29.81,SSE,162,1.0,4.0,67,0.00,,,0.00,meteohub,2013-05-16 16:09:00,
2013-05-16 12:12:00,67.1,56.1,29.81,ESE,108,1.0,4.0,68,0.00,,,0.00,meteohub,2013-05-16 16:12:00,
2013-05-16 12:13:00,66.9,56.5,29.81,ESE,108,0.0,4.0,69,0.00,,,0.00,meteohub,2013-05-16 16:13:00,
2013-05-16 12:14:00,66.9,56.5,29.81,ESE,104,0.0,4.0,69,0.00,,,0.00,meteohub,2013-05-16 16:14:00,
2013-05-16 12:18:00,67.3,56.3,29.81,ESE,111,1.0,3.0,68,0.00,,,0.00,meteohub,2013-05-16 16:18:00,
2013-05-16 12:20:00,67.3,55.6,29.81,ESE,111,0.0,3.0,66,0.00,,,0.00,meteohub,2013-05-16 16:20:00,
2013-05-16 12:23:00,68.0,56.3,29.81,ESE,109,0.0,3.0,66,0.00,,,0.00,meteohub,2013-05-16 16:23:00,
2013-05-16 12:24:00,68.0,56.3,29.81,ESE,109,0.0,3.0,66,0.00,,,0.00,meteohub,2013-05-16 16:24:00,
2013-05-16 12:25:00,68.2,56.3,29.81,ESE,109,0.0,3.0,66,0.00,,,0.00,meteohub,2013-05-16 16:25:00,
2013-05-16 12:28:00,68.5,55.9,29.81,East,82,1.0,3.0,64,0.00,,,0.00,meteohub,2013-05-16 16:28:00,
2013-05-16 12:29:00,68.5,55.4,29.82,East,80,1.0,3.0,63,0.00,,,0.00,meteohub,2013-05-16 16:29:00,
2013-05-16 12:30:00,68.5,55.0,29.82,East,80,1.0,3.0,62,0.00,,,0.00,meteohub,2013-05-16 16:30:00,
2013-05-16 12:34:00,68.4,55.2,29.81,East,84,2.0,3.0,63,0.00,,,0.00,meteohub,2013-05-16 16:34:00,
2013-05-16 12:35:00,68.2,55.6,29.81,East,80,2.0,3.0,64,0.00,,,0.00,meteohub,2013-05-16 16:35:00,
2013-05-16 12:36:00,67.8,54.7,29.81,East,80,3.0,3.0,63,0.00,,,0.00,meteohub,2013-05-16 16:36:00,
2013-05-16 12:39:00,67.5,54.9,29.81,ENE,73,1.0,3.0,64,0.00,,,0.00,meteohub,2013-05-16 16:39:00,
2013-05-16 12:40:00,67.3,54.7,29.82,ENE,78,1.0,3.0,64,0.00,,,0.00,meteohub,2013-05-16 16:40:00,
2013-05-16 12:41:00,67.3,54.7,29.82,NE,38,2.0,4.0,64,0.00,,,0.00,meteohub,2013-05-16 16:41:00,
2013-05-16 12:44:00,67.5,55.2,29.81,ENE,64,2.0,4.0,65,0.00,,,0.00,meteohub,2013-05-16 16:44:00,
2013-05-16 12:45:00,67.6,55.4,29.81,East,98,2.0,4.0,65,0.00,,,0.00,meteohub,2013-05-16 16:45:00,
2013-05-16 12:47:00,67.6,55.0,29.82,ESE,102,2.0,4.0,64,0.00,,,0.00,meteohub,2013-05-16 16:47:00,
2013-05-16 12:49:00,67.6,54.7,29.81,East,88,2.0,4.0,63,0.00,,,0.00,meteohub,2013-05-16 16:49:00,
2013-05-16 12:50:00,67.5,54.5,29.81,East,88,1.0,4.0,63,0.00,,,0.00,meteohub,2013-05-16 16:50:00,
2013-05-16 12:52:00,67.5,54.9,29.81,East,88,2.0,3.0,64,0.00,,,0.00,meteohub,2013-05-16 16:52:00,
2013-05-16 12:55:00,67.5,54.9,29.81,ENE,65,0.0,3.0,64,0.00,,,0.00,meteohub,2013-05-16 16:55:00,
2013-05-16 12:56:00,67.5,54.9,29.81,ENE,69,1.0,4.0,64,0.00,,,0.00,meteohub,2013-05-16 16:56:00,
2013-05-16 12:57:00,67.6,55.0,29.81,ENE,67,2.0,4.0,64,0.00,,,0.00,meteohub,2013-05-16 16:57:00,
2013-05-16 13:00:00,67.8,54.7,29.81,East,92,2.0,4.0,63,0.00,,,0.00,meteohub,2013-05-16 17:00:00,
2013-05-16 13:01:00,67.8,54.7,29.81,ESE,104,3.0,5.0,63,0.00,,,0.00,meteohub,2013-05-16 17:01:00,
2013-05-16 13:02:00,67.6,55.0,29.81,East,97,1.0,5.0,64,0.00,,,0.00,meteohub,2013-05-16 17:02:00,
2013-05-16 13:05:00,67.5,55.2,29.81,East,96,3.0,5.0,65,0.00,,,0.00,meteohub,2013-05-16 17:05:00,
2013-05-16 13:06:00,67.5,55.8,29.81,ENE,74,3.0,6.0,66,0.00,,,0.00,meteohub,2013-05-16 17:06:00,
2013-05-16 13:08:00,67.3,55.9,29.81,East,86,1.0,6.0,67,0.00,,,0.00,meteohub,2013-05-16 17:08:00,
2013-05-16 13:10:00,67.1,55.8,29.81,ENE,72,3.0,6.0,67,0.00,,,0.00,meteohub,2013-05-16 17:10:00,
2013-05-16 13:11:00,66.9,55.6,29.81,NE,36,4.0,6.0,67,0.00,,,0.00,meteohub,2013-05-16 17:11:00,
2013-05-16 13:14:00,67.3,55.9,29.81,ENE,61,2.0,6.0,67,0.00,,,0.00,meteohub,2013-05-16 17:14:00,
2013-05-16 13:16:00,67.3,55.0,29.81,East,97,3.0,6.0,65,0.00,,,0.00,meteohub,2013-05-16 17:16:00,
2013-05-16 13:17:00,67.1,55.4,29.81,ENE,77,5.0,6.0,66,0.00,,,0.00,meteohub,2013-05-16 17:17:00,
2013-05-16 13:19:00,66.7,54.1,29.81,East,96,2.0,6.0,64,0.00,,,0.00,meteohub,2013-05-16 17:19:00,
2013-05-16 13:21:00,66.7,53.8,29.81,NE,47,2.0,6.0,63,0.00,,,0.00,meteohub,2013-05-16 17:21:00,
2013-05-16 13:22:00,66.7,53.8,29.81,NE,48,2.0,6.0,63,0.00,,,0.00,meteohub,2013-05-16 17:22:00,
2013-05-16 13:25:00,66.9,54.3,29.81,ENE,69,2.0,6.0,64,0.00,,,0.00,meteohub,2013-05-16 17:25:00,
2013-05-16 13:26:00,66.9,54.9,29.81,East,84,3.0,6.0,65,0.00,,,0.00,meteohub,2013-05-16 17:26:00,
2013-05-16 13:27:00,66.9,54.9,29.81,East,88,2.0,6.0,65,0.00,,,0.00,meteohub,2013-05-16 17:27:00,
2013-05-16 13:28:00,66.7,54.7,29.81,East,83,2.0,6.0,65,0.00,,,0.00,meteohub,2013-05-16 17:28:00,
2013-05-16 13:30:00,66.6,54.9,29.81,ENE,73,2.0,6.0,66,0.00,,,0.00,meteohub,2013-05-16 17:30:00,
2013-05-16 13:31:00,66.4,54.7,29.81,East,86,1.0,6.0,66,0.00,,,0.00,meteohub,2013-05-16 17:31:00,
2013-05-16 13:32:00,66.4,54.7,29.81,East,86,2.0,6.0,66,0.00,,,0.00,meteohub,2013-05-16 17:32:00,
2013-05-16 13:33:00,66.2,54.5,29.81,East,79,2.0,6.0,66,0.00,,,0.00,meteohub,2013-05-16 17:33:00,
2013-05-16 13:35:00,65.8,55.0,29.80,East,86,5.0,5.0,68,0.00,,,0.00,meteohub,2013-05-16 17:35:00,
2013-05-16 13:37:00,65.8,55.0,29.81,ENE,67,4.0,5.0,68,0.00,,,0.00,meteohub,2013-05-16 17:37:00,
2013-05-16 13:38:00,65.7,54.9,29.81,ENE,78,2.0,5.0,68,0.00,,,0.00,meteohub,2013-05-16 17:38:00,
2013-05-16 13:40:00,65.5,55.0,29.81,ENE,65,4.0,6.0,69,0.00,,,0.00,meteohub,2013-05-16 17:40:00,
2013-05-16 13:42:00,65.5,55.0,29.81,East,81,3.0,6.0,69,0.00,,,0.00,meteohub,2013-05-16 17:42:00,
2013-05-16 13:43:00,65.5,55.4,29.81,East,81,3.0,6.0,70,0.00,,,0.00,meteohub,2013-05-16 17:43:00,
2013-05-16 13:44:00,65.5,55.4,29.81,East,80,2.0,6.0,70,0.00,,,0.00,meteohub,2013-05-16 17:44:00,
2013-05-16 13:47:00,65.5,55.8,29.81,East,95,2.0,6.0,71,0.00,,,0.00,meteohub,2013-05-16 17:47:00,
2013-05-16 13:48:00,65.3,55.6,29.81,ENE,78,3.0,6.0,71,0.00,,,0.00,meteohub,2013-05-16 17:48:00,
2013-05-16 13:49:00,65.5,55.8,29.81,East,97,2.0,6.0,71,0.00,,,0.00,meteohub,2013-05-16 17:49:00,
2013-05-16 13:52:00,65.5,55.8,29.81,East,94,5.0,6.0,71,0.00,,,0.00,meteohub,2013-05-16 17:52:00,
2013-05-16 13:53:00,65.3,55.6,29.81,East,88,5.0,6.0,71,0.00,,,0.00,meteohub,2013-05-16 17:53:00,
2013-05-16 13:54:00,65.1,55.4,29.81,ENE,64,4.0,6.0,71,0.00,,,0.00,meteohub,2013-05-16 17:54:00,
2013-05-16 13:57:00,64.8,55.6,29.81,East,98,5.0,5.0,72,0.00,,,0.00,meteohub,2013-05-16 17:57:00,
2013-05-16 13:58:00,64.6,55.4,29.81,East,95,3.0,5.0,72,0.00,,,0.00,meteohub,2013-05-16 17:58:00,
2013-05-16 13:59:00,64.6,55.4,29.81,East,86,3.0,5.0,72,0.00,,,0.00,meteohub,2013-05-16 17:59:00,
2013-05-16 14:00:00,64.6,55.4,29.81,East,80,3.0,5.0,72,0.00,,,0.00,meteohub,2013-05-16 18:00:00,
2013-05-16 14:03:00,64.4,55.2,29.81,ENE,76,3.0,6.0,72,0.00,,,0.00,meteohub,2013-05-16 18:03:00,
2013-05-16 14:04:00,64.4,55.2,29.81,East,92,2.0,6.0,72,0.00,,,0.00,meteohub,2013-05-16 18:04:00,
2013-05-16 14:05:00,64.4,54.9,29.81,ESE,106,3.0,6.0,71,0.00,,,0.00,meteohub,2013-05-16 18:05:00,
2013-05-16 14:08:00,64.4,54.3,29.81,East,86,3.0,6.0,70,0.00,,,0.00,meteohub,2013-05-16 18:08:00,
2013-05-16 14:10:00,64.4,54.0,29.80,ENE,74,3.0,6.0,69,0.00,,,0.00,meteohub,2013-05-16 18:10:00,
2013-05-16 14:11:00,64.6,54.1,29.81,East,80,1.0,5.0,69,0.00,,,0.00,meteohub,2013-05-16 18:11:00,
2013-05-16 14:13:00,64.6,54.1,29.81,East,99,2.0,5.0,69,0.00,,,0.00,meteohub,2013-05-16 18:13:00,
2013-05-16 14:14:00,64.8,54.0,29.80,ESE,102,1.0,5.0,68,0.00,,,0.00,meteohub,2013-05-16 18:14:00,
2013-05-16 14:15:00,64.9,54.1,29.81,ENE,77,2.0,5.0,68,0.00,,,0.00,meteohub,2013-05-16 18:15:00,
2013-05-16 14:16:00,65.1,54.3,29.80,ESE,117,3.0,5.0,68,0.00,,,0.00,meteohub,2013-05-16 18:16:00,
2013-05-16 14:19:00,65.7,53.6,29.80,ESE,111,2.0,5.0,65,0.00,,,0.00,meteohub,2013-05-16 18:19:00,
2013-05-16 14:21:00,66.0,54.0,29.80,East,82,2.0,5.0,65,0.00,,,0.00,meteohub,2013-05-16 18:21:00,
2013-05-16 14:24:00,66.7,54.1,29.80,ESE,107,3.0,5.0,64,0.00,,,0.00,meteohub,2013-05-16 18:24:00,
2013-05-16 14:26:00,66.7,54.7,29.80,East,89,3.0,5.0,65,0.00,,,0.00,meteohub,2013-05-16 18:26:00,
2013-05-16 14:27:00,66.9,54.9,29.80,East,99,1.0,5.0,65,0.00,,,0.00,meteohub,2013-05-16 18:27:00,
2013-05-16 14:29:00,66.9,54.3,29.80,SE,135,1.0,5.0,64,0.00,,,0.00,meteohub,2013-05-16 18:29:00,
2013-05-16 14:30:00,66.9,54.9,29.80,SE,138,1.0,5.0,65,0.00,,,0.00,meteohub,2013-05-16 18:30:00,
2013-05-16 14:31:00,66.9,55.2,29.80,East,90,0.0,5.0,66,0.00,,,0.00,meteohub,2013-05-16 18:31:00,
2013-05-16 14:32:00,66.9,55.2,29.80,East,91,1.0,5.0,66,0.00,,,0.00,meteohub,2013-05-16 18:32:00,
2013-05-16 14:34:00,66.9,55.6,29.80,ESE,105,1.0,5.0,67,0.00,,,0.00,meteohub,2013-05-16 18:34:00,
2013-05-16 14:35:00,66.7,55.4,29.80,ESE,109,1.0,5.0,67,0.00,,,0.00,meteohub,2013-05-16 18:35:00,
2013-05-16 14:37:00,66.7,55.4,29.80,SE,134,1.0,5.0,67,0.00,,,0.00,meteohub,2013-05-16 18:37:00,
2013-05-16 14:39:00,66.6,55.6,29.80,SE,125,3.0,5.0,68,0.00,,,0.00,meteohub,2013-05-16 18:39:00,
2013-05-16 14:40:00,66.6,55.6,29.80,ENE,59,1.0,4.0,68,0.00,,,0.00,meteohub,2013-05-16 18:40:00,
2013-05-16 14:42:00,66.7,55.4,29.80,ESE,110,2.0,4.0,67,0.00,,,0.00,meteohub,2013-05-16 18:42:00,
2013-05-16 14:43:00,66.7,55.4,29.80,ESE,113,1.0,4.0,67,0.00,,,0.00,meteohub,2013-05-16 18:43:00,
2013-05-16 14:44:00,66.7,55.4,29.80,East,82,1.0,4.0,67,0.00,,,0.00,meteohub,2013-05-16 18:44:00,
2013-05-16 14:46:00,66.9,54.9,29.80,East,100,0.0,4.0,65,0.00,,,0.00,meteohub,2013-05-16 18:46:00,
2013-05-16 14:47:00,67.1,54.5,29.80,ESE,112,0.0,4.0,64,0.00,,,0.00,meteohub,2013-05-16 18:47:00,
2013-05-16 14:49:00,67.5,54.5,29.80,ENE,72,1.0,4.0,63,0.00,,,0.00,meteohub,2013-05-16 18:49:00,
2013-05-16 14:52:00,67.6,53.2,29.80,ESE,113,0.0,4.0,60,0.00,,,0.00,meteohub,2013-05-16 18:52:00,
2013-05-16 14:53:00,67.6,53.2,29.80,ESE,115,0.0,4.0,60,0.00,,,0.00,meteohub,2013-05-16 18:53:00,
2013-05-16 14:55:00,67.6,53.2,29.80,ESE,116,0.0,4.0,60,0.00,,,0.00,meteohub,2013-05-16 18:55:00,
2013-05-16 14:57:00,67.8,52.9,29.80,ESE,116,1.0,3.0,59,0.00,,,0.00,meteohub,2013-05-16 18:57:00,
2013-05-16 14:59:00,67.8,52.9,29.80,ESE,116,0.0,3.0,59,0.00,,,0.00,meteohub,2013-05-16 18:59:00,
2013-05-16 15:00:00,68.2,53.8,29.80,ESE,118,0.0,3.0,60,0.00,,,0.00,meteohub,2013-05-16 19:00:00,
2013-05-16 15:01:00,68.4,53.4,29.80,SE,142,1.0,3.0,59,0.00,,,0.00,meteohub,2013-05-16 19:01:00,
2013-05-16 15:02:00,68.4,53.1,29.80,South,174,3.0,3.0,58,0.00,,,0.00,meteohub,2013-05-16 19:02:00,
2013-05-16 15:04:00,68.4,53.4,29.80,South,171,2.0,3.0,59,0.00,,,0.00,meteohub,2013-05-16 19:04:00,
2013-05-16 15:05:00,67.8,52.9,29.80,South,169,2.0,3.0,59,0.00,,,0.00,meteohub,2013-05-16 19:05:00,
2013-05-16 15:06:00,67.8,52.9,29.80,South,169,2.0,3.0,59,0.00,,,0.00,meteohub,2013-05-16 19:06:00,
2013-05-16 15:08:00,67.5,53.6,29.80,SSE,161,2.0,3.0,61,0.00,,,0.00,meteohub,2013-05-16 19:08:00,
2013-05-16 15:09:00,67.5,53.6,29.80,SSE,165,2.0,3.0,61,0.00,,,0.00,meteohub,2013-05-16 19:09:00,
2013-05-16 15:10:00,67.3,53.8,29.80,SSE,167,1.0,3.0,62,0.00,,,0.00,meteohub,2013-05-16 19:10:00,
2013-05-16 15:11:00,67.3,53.8,29.80,SSE,161,1.0,3.0,62,0.00,,,0.00,meteohub,2013-05-16 19:11:00,
2013-05-16 15:13:00,66.9,54.0,29.80,South,182,2.0,3.0,63,0.00,,,0.00,meteohub,2013-05-16 19:13:00,
2013-05-16 15:14:00,66.9,54.3,29.79,South,181,2.0,3.0,64,0.00,,,0.00,meteohub,2013-05-16 19:14:00,
2013-05-16 15:16:00,66.7,54.1,29.79,SSE,167,2.0,3.0,64,0.00,,,0.00,meteohub,2013-05-16 19:16:00,
2013-05-16 15:18:00,66.6,54.9,29.80,South,178,4.0,4.0,66,0.00,,,0.00,meteohub,2013-05-16 19:18:00,
2013-05-16 15:19:00,66.6,54.5,29.79,SSE,155,2.0,3.0,65,0.00,,,0.00,meteohub,2013-05-16 19:19:00,
2013-05-16 15:21:00,66.4,54.7,29.79,SSE,167,3.0,3.0,66,0.00,,,0.00,meteohub,2013-05-16 19:21:00,
2013-05-16 15:22:00,66.4,55.0,29.79,SSE,163,2.0,3.0,67,0.00,,,0.00,meteohub,2013-05-16 19:22:00,
2013-05-16 15:24:00,66.2,55.4,29.79,SSE,152,2.0,3.0,68,0.00,,,0.00,meteohub,2013-05-16 19:24:00,
2013-05-16 15:26:00,66.2,55.8,29.79,SSE,163,2.0,4.0,69,0.00,,,0.00,meteohub,2013-05-16 19:26:00,
2013-05-16 15:27:00,66.2,55.8,29.79,SSE,163,1.0,4.0,69,0.00,,,0.00,meteohub,2013-05-16 19:27:00,
2013-05-16 15:29:00,66.2,55.8,29.79,SSE,155,0.0,4.0,69,0.00,,,0.00,meteohub,2013-05-16 19:29:00,
2013-05-16 15:30:00,66.2,55.8,29.79,SSE,155,0.0,4.0,69,0.00,,,0.00,meteohub,2013-05-16 19:30:00,
2013-05-16 15:32:00,66.2,55.8,29.79,SSE,155,0.0,4.0,69,0.00,,,0.00,meteohub,2013-05-16 19:32:00,
2013-05-16 15:35:00,66.7,55.8,29.79,South,173,3.0,4.0,68,0.00,,,0.00,meteohub,2013-05-16 19:35:00,
2013-05-16 15:37:00,66.7,56.3,29.79,South,180,3.0,3.0,69,0.00,,,0.00,meteohub,2013-05-16 19:37:00,
2013-05-16 15:38:00,66.7,56.3,29.79,SSW,192,2.0,3.0,69,0.00,,,0.00,meteohub,2013-05-16 19:38:00,
2013-05-16 15:40:00,66.7,56.3,29.79,South,177,1.0,3.0,69,0.00,,,0.00,meteohub,2013-05-16 19:40:00,
2013-05-16 15:42:00,66.9,56.5,29.79,South,185,2.0,5.0,69,0.00,,,0.00,meteohub,2013-05-16 19:42:00,
2013-05-16 15:43:00,66.9,55.9,29.79,South,175,2.0,5.0,68,0.00,,,0.00,meteohub,2013-05-16 19:43:00,
2013-05-16 15:45:00,67.3,56.3,29.78,SSE,161,1.0,5.0,68,0.00,,,0.00,meteohub,2013-05-16 19:45:00,
2013-05-16 15:46:00,67.3,56.3,29.79,SSW,206,1.0,5.0,68,0.00,,,0.00,meteohub,2013-05-16 19:46:00,
2013-05-16 15:47:00,67.3,56.3,29.79,South,169,1.0,5.0,68,0.00,,,0.00,meteohub,2013-05-16 19:47:00,
2013-05-16 15:48:00,67.3,56.3,29.79,SSW,196,2.0,5.0,68,0.00,,,0.00,meteohub,2013-05-16 19:48:00,
2013-05-16 15:49:00,67.3,56.3,29.79,SSE,162,2.0,5.0,68,0.00,,,0.00,meteohub,2013-05-16 19:49:00,
2013-05-16 15:51:00,67.1,56.7,29.79,South,190,2.0,4.0,69,0.00,,,0.00,meteohub,2013-05-16 19:51:00,
2013-05-16 15:53:00,66.9,56.5,29.79,South,176,1.0,4.0,69,0.00,,,0.00,meteohub,2013-05-16 19:53:00,
2013-05-16 15:54:00,66.9,56.5,29.79,SSE,166,2.0,4.0,69,0.00,,,0.00,meteohub,2013-05-16 19:54:00,
2013-05-16 15:56:00,66.7,56.7,29.78,SSW,198,0.0,4.0,70,0.00,,,0.00,meteohub,2013-05-16 19:56:00,
2013-05-16 15:58:00,66.7,56.7,29.78,South,173,2.0,4.0,70,0.00,,,0.00,meteohub,2013-05-16 19:58:00,
2013-05-16 15:59:00,66.7,56.7,29.78,SSE,167,3.0,4.0,70,0.00,,,0.00,meteohub,2013-05-16 19:59:00,
2013-05-16 16:01:00,66.7,56.3,29.78,SSE,167,2.0,4.0,69,0.00,,,0.00,meteohub,2013-05-16 20:01:00,
2013-05-16 16:02:00,66.7,56.3,29.78,SSE,157,3.0,4.0,69,0.00,,,0.00,meteohub,2013-05-16 20:02:00,
2013-05-16 16:04:00,66.6,56.1,29.78,SSE,151,4.0,4.0,69,0.00,,,0.00,meteohub,2013-05-16 20:04:00,
2013-05-16 16:05:00,66.4,55.9,29.78,SSE,157,3.0,4.0,69,0.00,,,0.00,meteohub,2013-05-16 20:05:00,
2013-05-16 16:06:00,66.2,55.8,29.78,SSE,167,3.0,4.0,69,0.00,,,0.00,meteohub,2013-05-16 20:06:00,
2013-05-16 16:07:00,66.0,55.9,29.78,South,188,3.0,4.0,70,0.00,,,0.00,meteohub,2013-05-16 20:07:00,
2013-05-16 16:09:00,66.0,55.9,29.78,South,178,3.0,4.0,70,0.00,,,0.00,meteohub,2013-05-16 20:09:00,
2013-05-16 16:10:00,66.0,56.3,29.78,SE,145,1.0,5.0,71,0.00,,,0.00,meteohub,2013-05-16 20:10:00,
2013-05-16 16:11:00,66.0,56.3,29.78,South,176,4.0,5.0,71,0.00,,,0.00,meteohub,2013-05-16 20:11:00,
2013-05-16 16:12:00,66.0,55.9,29.78,South,177,4.0,5.0,70,0.00,,,0.00,meteohub,2013-05-16 20:12:00,
2013-05-16 16:14:00,66.0,55.9,29.78,SSE,157,3.0,5.0,70,0.00,,,0.00,meteohub,2013-05-16 20:14:00,
2013-05-16 16:15:00,66.0,55.9,29.78,SSE,161,3.0,5.0,70,0.00,,,0.00,meteohub,2013-05-16 20:15:00,
2013-05-16 16:17:00,65.8,56.1,29.78,South,183,3.0,5.0,71,0.00,,,0.00,meteohub,2013-05-16 20:17:00,
2013-05-16 16:18:00,65.8,56.1,29.78,South,181,3.0,5.0,71,0.00,,,0.00,meteohub,2013-05-16 20:18:00,
2013-05-16 16:19:00,65.8,56.1,29.78,SSE,161,2.0,5.0,71,0.00,,,0.00,meteohub,2013-05-16 20:19:00,
2013-05-16 16:20:00,65.8,56.5,29.78,SSE,158,3.0,5.0,72,0.00,,,0.00,meteohub,2013-05-16 20:20:00,
2013-05-16 16:22:00,65.8,56.5,29.78,SSE,163,2.0,5.0,72,0.00,,,0.00,meteohub,2013-05-16 20:22:00,
2013-05-16 16:23:00,65.8,56.5,29.78,SSE,155,3.0,5.0,72,0.00,,,0.00,meteohub,2013-05-16 20:23:00,
2013-05-16 16:24:00,65.8,56.5,29.78,SSE,160,3.0,5.0,72,0.00,,,0.00,meteohub,2013-05-16 20:24:00,
2013-05-16 16:26:00,65.7,56.8,29.78,South,169,2.0,5.0,73,0.00,,,0.00,meteohub,2013-05-16 20:26:00,
2013-05-16 16:28:00,65.7,57.2,29.78,SSW,195,2.0,5.0,74,0.00,,,0.00,meteohub,2013-05-16 20:28:00,
2013-05-16 16:29:00,65.8,57.4,29.78,SSE,162,3.0,5.0,74,0.00,,,0.00,meteohub,2013-05-16 20:29:00,
2013-05-16 16:32:00,66.0,57.6,29.78,South,184,3.0,4.0,74,0.00,,,0.00,meteohub,2013-05-16 20:32:00,
2013-05-16 16:33:00,66.0,57.6,29.78,SSW,201,2.0,4.0,74,0.00,,,0.00,meteohub,2013-05-16 20:33:00,
2013-05-16 16:35:00,66.2,57.7,29.78,SSE,156,3.0,4.0,74,0.00,,,0.00,meteohub,2013-05-16 20:35:00,
2013-05-16 16:37:00,66.2,57.7,29.78,SSE,150,4.0,4.0,74,0.00,,,0.00,meteohub,2013-05-16 20:37:00,
2013-05-16 16:38:00,66.0,57.2,29.78,South,170,3.0,4.0,73,0.00,,,0.00,meteohub,2013-05-16 20:38:00,
2013-05-16 16:41:00,65.8,57.0,29.78,SSW,192,3.0,6.0,73,0.00,,,0.00,meteohub,2013-05-16 20:41:00,
2013-05-16 16:42:00,65.7,57.2,29.78,SSE,156,2.0,6.0,74,0.00,,,0.00,meteohub,2013-05-16 20:42:00,
2013-05-16 16:43:00,65.5,57.0,29.78,SSE,155,4.0,6.0,74,0.00,,,0.00,meteohub,2013-05-16 20:43:00,
2013-05-16 16:44:00,65.5,57.0,29.78,SSE,157,2.0,6.0,74,0.00,,,0.00,meteohub,2013-05-16 20:44:00,
2013-05-16 16:46:00,65.3,57.2,29.78,SSE,165,2.0,6.0,75,0.00,,,0.00,meteohub,2013-05-16 20:46:00,
2013-05-16 16:48:00,65.1,57.0,29.78,SSE,156,3.0,6.0,75,0.00,,,0.00,meteohub,2013-05-16 20:48:00,
2013-05-16 16:49:00,65.1,57.0,29.78,SSE,157,3.0,6.0,75,0.00,,,0.00,meteohub,2013-05-16 20:49:00,
2013-05-16 16:53:00,65.1,57.0,29.78,SSE,153,3.0,6.0,75,0.00,,,0.00,meteohub,2013-05-16 20:53:00,
2013-05-16 16:54:00,65.1,57.0,29.78,South,186,3.0,6.0,75,0.00,,,0.00,meteohub,2013-05-16 20:54:00,
2013-05-16 17:00:00,64.9,56.8,29.78,SSW,193,2.0,4.0,75,0.00,,,0.00,meteohub,2013-05-16 21:00:00,
2013-05-16 17:01:00,65.1,57.0,29.78,South,171,3.0,4.0,75,0.00,,,0.00,meteohub,2013-05-16 21:01:00,
2013-05-16 17:05:00,65.1,57.0,29.78,South,186,3.0,4.0,75,0.00,,,0.00,meteohub,2013-05-16 21:05:00,
2013-05-16 17:06:00,65.1,57.0,29.78,SSE,155,3.0,4.0,75,0.00,,,0.00,meteohub,2013-05-16 21:06:00,
2013-05-16 17:07:00,65.1,57.0,29.78,South,173,2.0,4.0,75,0.00,,,0.00,meteohub,2013-05-16 21:07:00,
2013-05-16 17:10:00,65.1,57.0,29.78,South,175,4.0,5.0,75,0.00,,,0.00,meteohub,2013-05-16 21:10:00,
2013-05-16 17:11:00,65.1,57.0,29.78,SSE,157,1.0,5.0,75,0.00,,,0.00,meteohub,2013-05-16 21:11:00,
2013-05-16 17:12:00,65.1,57.0,29.78,SSE,147,3.0,5.0,75,0.00,,,0.00,meteohub,2013-05-16 21:12:00,
2013-05-16 17:16:00,64.8,56.7,29.78,SSE,167,3.0,5.0,75,0.00,,,0.00,meteohub,2013-05-16 21:16:00,
2013-05-16 17:17:00,64.8,56.7,29.78,South,173,3.0,5.0,75,0.00,,,0.00,meteohub,2013-05-16 21:17:00,
2013-05-16 17:21:00,64.6,56.8,29.78,South,174,3.0,5.0,76,0.00,,,0.00,meteohub,2013-05-16 21:21:00,
2013-05-16 17:22:00,64.6,56.8,29.78,SSE,151,3.0,5.0,76,0.00,,,0.00,meteohub,2013-05-16 21:22:00,
2013-05-16 17:26:00,64.4,57.0,29.78,SSE,157,1.0,5.0,77,0.00,,,0.00,meteohub,2013-05-16 21:26:00,
2013-05-16 17:27:00,64.4,57.0,29.78,South,183,2.0,5.0,77,0.00,,,0.00,meteohub,2013-05-16 21:27:00,
2013-05-16 17:28:00,64.4,57.0,29.78,South,172,4.0,6.0,77,0.00,,,0.00,meteohub,2013-05-16 21:28:00,
2013-05-16 17:32:00,64.2,56.8,29.77,SSE,156,4.0,6.0,77,0.00,,,0.00,meteohub,2013-05-16 21:32:00,
2013-05-16 17:33:00,64.2,56.8,29.78,South,188,3.0,6.0,77,0.00,,,0.00,meteohub,2013-05-16 21:33:00,
2013-05-16 17:37:00,64.0,56.7,29.77,SSE,163,4.0,6.0,77,0.00,,,0.00,meteohub,2013-05-16 21:37:00,
2013-05-16 17:38:00,64.0,56.7,29.77,SSE,163,4.0,7.0,77,0.00,,,0.00,meteohub,2013-05-16 21:38:00,
2013-05-16 17:42:00,63.9,56.5,29.77,North,-999,-999.0,7.0,77,0.00,,,0.00,meteohub,2013-05-16 21:42:00,
2013-05-16 17:43:00,63.9,56.5,29.77,North,-999,-999.0,7.0,77,0.00,,,0.00,meteohub,2013-05-16 21:43:00,
2013-05-16 17:44:00,63.9,56.8,29.77,North,-999,-999.0,7.0,78,0.00,,,0.00,meteohub,2013-05-16 21:44:00,
2013-05-16 17:48:00,63.9,56.8,29.77,South,169,5.0,7.0,78,0.00,,,0.00,meteohub,2013-05-16 21:48:00,
2013-05-16 17:49:00,63.7,56.7,29.77,SE,136,2.0,7.0,78,0.00,,,0.00,meteohub,2013-05-16 21:49:00,
2013-05-16 17:53:00,63.5,56.5,29.77,SSE,167,4.0,6.0,78,0.00,,,0.00,meteohub,2013-05-16 21:53:00,
2013-05-16 17:54:00,63.3,56.3,29.77,South,176,3.0,6.0,78,0.00,,,0.00,meteohub,2013-05-16 21:54:00,
2013-05-16 17:55:00,63.3,56.3,29.77,SSE,155,1.0,6.0,78,0.00,,,0.00,meteohub,2013-05-16 21:55:00,
2013-05-16 17:58:00,63.3,56.3,29.77,SSE,168,2.0,6.0,78,0.00,,,0.00,meteohub,2013-05-16 21:58:00,
2013-05-16 17:59:00,63.5,56.8,29.77,SSE,162,2.0,6.0,79,0.00,,,0.00,meteohub,2013-05-16 21:59:00,
2013-05-16 18:00:00,63.5,56.8,29.77,SSE,148,1.0,6.0,79,0.00,,,0.00,meteohub,2013-05-16 22:00:00,
2013-05-16 18:03:00,63.7,57.0,29.77,SSE,155,1.0,6.0,79,0.00,,,0.00,meteohub,2013-05-16 22:03:00,
2013-05-16 18:04:00,63.7,57.0,29.77,South,188,2.0,6.0,79,0.00,,,0.00,meteohub,2013-05-16 22:04:00,
2013-05-16 18:05:00,63.7,57.0,29.77,SSE,162,1.0,6.0,79,0.00,,,0.00,meteohub,2013-05-16 22:05:00,
2013-05-16 18:06:00,63.7,57.0,29.77,ESE,117,2.0,6.0,79,0.00,,,0.00,meteohub,2013-05-16 22:06:00,
2013-05-16 18:08:00,63.7,56.7,29.77,South,175,2.0,6.0,78,0.00,,,0.00,meteohub,2013-05-16 22:08:00,
2013-05-16 18:09:00,63.7,56.7,29.77,SSE,147,3.0,6.0,78,0.00,,,0.00,meteohub,2013-05-16 22:09:00,
2013-05-16 18:10:00,63.7,56.7,29.77,SSE,158,2.0,6.0,78,0.00,,,0.00,meteohub,2013-05-16 22:10:00,
2013-05-16 18:11:00,63.5,56.8,29.77,SSE,153,2.0,6.0,79,0.00,,,0.00,meteohub,2013-05-16 22:11:00,
2013-05-16 18:13:00,63.3,56.7,29.77,SE,140,3.0,5.0,79,0.00,,,0.00,meteohub,2013-05-16 22:13:00,
2013-05-16 18:15:00,63.3,56.7,29.77,SSE,161,4.0,5.0,79,0.00,,,0.00,meteohub,2013-05-16 22:15:00,
2013-05-16 18:16:00,63.3,56.7,29.77,South,182,2.0,5.0,79,0.00,,,0.00,meteohub,2013-05-16 22:16:00,
2013-05-16 18:17:00,63.3,56.7,29.77,South,174,2.0,5.0,79,0.00,,,0.00,meteohub,2013-05-16 22:17:00,
2013-05-16 18:19:00,63.1,56.5,29.78,South,180,3.0,5.0,79,0.00,,,0.00,meteohub,2013-05-16 22:19:00,
2013-05-16 18:20:00,63.1,56.5,29.78,South,171,1.0,5.0,79,0.00,,,0.00,meteohub,2013-05-16 22:20:00,
2013-05-16 18:22:00,63.1,56.5,29.77,SSW,200,3.0,5.0,79,0.00,,,0.00,meteohub,2013-05-16 22:22:00,
2013-05-16 18:24:00,63.1,56.8,29.78,South,172,2.0,5.0,80,0.00,,,0.00,meteohub,2013-05-16 22:24:00,
2013-05-16 18:26:00,63.1,56.8,29.78,South,186,1.0,5.0,80,0.00,,,0.00,meteohub,2013-05-16 22:26:00,
2013-05-16 18:27:00,63.1,56.8,29.78,SSW,194,2.0,5.0,80,0.00,,,0.00,meteohub,2013-05-16 22:27:00,
2013-05-16 18:28:00,63.1,56.8,29.78,SSE,157,1.0,5.0,80,0.00,,,0.00,meteohub,2013-05-16 22:28:00,
2013-05-16 18:29:00,63.0,56.7,29.78,South,184,4.0,5.0,80,0.00,,,0.00,meteohub,2013-05-16 22:29:00,
2013-05-16 18:32:00,63.0,56.7,29.78,SSE,152,2.0,5.0,80,0.00,,,0.00,meteohub,2013-05-16 22:32:00,
2013-05-16 18:33:00,63.0,57.0,29.78,South,171,4.0,5.0,81,0.00,,,0.00,meteohub,2013-05-16 22:33:00,
2013-05-16 18:35:00,63.0,57.0,29.78,SSW,202,4.0,5.0,81,0.00,,,0.00,meteohub,2013-05-16 22:35:00,
2013-05-16 18:37:00,62.8,56.8,29.78,SSW,192,3.0,5.0,81,0.00,,,0.00,meteohub,2013-05-16 22:37:00,
2013-05-16 18:38:00,62.8,56.8,29.78,South,174,2.0,5.0,81,0.00,,,0.00,meteohub,2013-05-16 22:38:00,
2013-05-16 18:40:00,62.8,56.8,29.78,South,186,3.0,5.0,81,0.00,,,0.00,meteohub,2013-05-16 22:40:00,
2013-05-16 18:42:00,62.8,56.8,29.78,SSE,167,3.0,5.0,81,0.00,,,0.00,meteohub,2013-05-16 22:42:00,
2013-05-16 18:43:00,62.8,56.8,29.78,SSE,159,4.0,5.0,81,0.00,,,0.00,meteohub,2013-05-16 22:43:00,
2013-05-16 18:45:00,63.0,57.0,29.78,SSE,163,4.0,5.0,81,0.00,,,0.00,meteohub,2013-05-16 22:45:00,
2013-05-16 18:47:00,63.0,57.4,29.78,South,178,0.0,5.0,82,0.00,,,0.00,meteohub,2013-05-16 22:47:00,
2013-05-16 18:48:00,63.0,57.4,29.78,South,179,2.0,5.0,82,0.00,,,0.00,meteohub,2013-05-16 22:48:00,
2013-05-16 18:49:00,63.0,57.4,29.78,SSW,192,1.0,5.0,82,0.00,,,0.00,meteohub,2013-05-16 22:49:00,
2013-05-16 18:50:00,63.0,57.4,29.78,South,175,1.0,5.0,82,0.00,,,0.00,meteohub,2013-05-16 22:50:00,
2013-05-16 18:52:00,63.0,57.4,29.79,South,190,2.0,5.0,82,0.00,,,0.00,meteohub,2013-05-16 22:52:00,
2013-05-16 18:54:00,63.0,57.4,29.78,SSW,197,2.0,5.0,82,0.00,,,0.00,meteohub,2013-05-16 22:54:00,
2013-05-16 18:55:00,63.0,57.4,29.78,SSW,196,2.0,5.0,82,0.00,,,0.00,meteohub,2013-05-16 22:55:00,
2013-05-16 18:56:00,63.1,57.6,29.78,South,189,1.0,5.0,82,0.00,,,0.00,meteohub,2013-05-16 22:56:00,
2013-05-16 18:58:00,63.1,57.6,29.78,SSW,200,2.0,5.0,82,0.00,,,0.00,meteohub,2013-05-16 22:58:00,
2013-05-16 19:00:00,63.0,57.4,29.78,SSW,196,3.0,5.0,82,0.00,,,0.00,meteohub,2013-05-16 23:00:00,
2013-05-16 19:01:00,63.0,57.4,29.78,South,170,2.0,5.0,82,0.00,,,0.00,meteohub,2013-05-16 23:01:00,
2013-05-16 19:03:00,63.0,57.4,29.78,SW,218,3.0,6.0,82,0.00,,,0.00,meteohub,2013-05-16 23:03:00,
2013-05-16 19:05:00,63.0,57.4,29.78,SW,233,2.0,6.0,82,0.00,,,0.00,meteohub,2013-05-16 23:05:00,
2013-05-16 19:07:00,62.8,57.2,29.78,SSW,202,2.0,6.0,82,0.00,,,0.00,meteohub,2013-05-16 23:07:00,
2013-05-16 19:09:00,62.8,57.2,29.78,South,183,3.0,6.0,82,0.00,,,0.00,meteohub,2013-05-16 23:09:00,
2013-05-16 19:10:00,62.8,57.2,29.79,SSW,209,2.0,6.0,82,0.00,,,0.00,meteohub,2013-05-16 23:10:00,
2013-05-16 19:11:00,62.8,57.6,29.79,SW,221,2.0,6.0,83,0.00,,,0.00,meteohub,2013-05-16 23:11:00,
2013-05-16 19:13:00,62.8,57.6,29.79,SW,230,4.0,6.0,83,0.00,,,0.00,meteohub,2013-05-16 23:13:00,
2013-05-16 19:14:00,62.8,57.6,29.79,SW,228,2.0,6.0,83,0.00,,,0.00,meteohub,2013-05-16 23:14:00,
2013-05-16 19:15:00,62.8,57.6,29.79,SSW,198,5.0,6.0,83,0.00,,,0.00,meteohub,2013-05-16 23:15:00,
2013-05-16 19:16:00,62.8,57.6,29.79,SW,224,6.0,6.0,83,0.00,,,0.00,meteohub,2013-05-16 23:16:00,
2013-05-16 19:17:00,62.8,57.6,29.79,SSW,205,2.0,6.0,83,0.00,,,0.00,meteohub,2013-05-16 23:17:00,
2013-05-16 19:19:00,62.8,57.6,29.79,South,185,2.0,6.0,83,0.00,,,0.00,meteohub,2013-05-16 23:19:00,
2013-05-16 19:21:00,62.6,57.4,29.79,SSW,192,2.0,6.0,83,0.00,,,0.00,meteohub,2013-05-16 23:21:00,
2013-05-16 19:22:00,62.6,57.4,29.78,SSW,207,4.0,6.0,83,0.00,,,0.00,meteohub,2013-05-16 23:22:00,
2013-05-16 19:25:00,62.6,57.7,29.78,SSW,204,5.0,9.0,84,0.00,,,0.00,meteohub,2013-05-16 23:25:00,
2013-05-16 19:26:00,62.6,57.7,29.78,SW,219,3.0,9.0,84,0.00,,,0.00,meteohub,2013-05-16 23:26:00,
2013-05-16 19:27:00,62.6,57.7,29.78,SSW,213,2.0,9.0,84,0.00,,,0.00,meteohub,2013-05-16 23:27:00,
2013-05-16 19:28:00,62.6,57.7,29.78,SW,223,4.0,9.0,84,0.00,,,0.00,meteohub,2013-05-16 23:28:00,
2013-05-16 19:30:00,62.6,58.1,29.78,WSW,241,3.0,9.0,85,0.00,,,0.00,meteohub,2013-05-16 23:30:00,
2013-05-16 19:31:00,62.6,58.1,29.78,SSW,207,2.0,9.0,85,0.00,,,0.00,meteohub,2013-05-16 23:31:00,
2013-05-16 19:32:00,62.6,58.1,29.78,SSW,211,2.0,9.0,85,0.00,,,0.00,meteohub,2013-05-16 23:32:00,
2013-05-16 19:33:00,62.6,58.1,29.78,SSW,192,4.0,9.0,85,0.00,,,0.00,meteohub,2013-05-16 23:33:00,
2013-05-16 19:35:00,62.4,57.9,29.78,SW,223,3.0,9.0,85,0.00,,,0.00,meteohub,2013-05-16 23:35:00,
2013-05-16 19:36:00,62.4,57.9,29.78,SW,222,3.0,9.0,85,0.00,,,0.00,meteohub,2013-05-16 23:36:00,
2013-05-16 19:37:00,62.4,57.9,29.78,SSW,200,6.0,9.0,85,0.00,,,0.00,meteohub,2013-05-16 23:37:00,
2013-05-16 19:38:00,62.4,57.9,29.78,SW,225,5.0,10.0,85,0.00,,,0.00,meteohub,2013-05-16 23:38:00,
2013-05-16 19:40:00,62.2,57.7,29.78,SW,221,3.0,10.0,85,0.00,,,0.00,meteohub,2013-05-16 23:40:00,
2013-05-16 19:41:00,62.2,57.7,29.78,SW,219,4.0,10.0,85,0.00,,,0.00,meteohub,2013-05-16 23:41:00,
2013-05-16 19:42:00,62.2,57.7,29.78,SSW,213,5.0,10.0,85,0.00,,,0.00,meteohub,2013-05-16 23:42:00,
2013-05-16 19:43:00,62.2,57.9,29.79,SSW,208,6.0,10.0,86,0.00,,,0.00,meteohub,2013-05-16 23:43:00,
2013-05-16 19:46:00,62.1,57.7,29.78,SW,234,2.0,10.0,86,0.00,,,0.00,meteohub,2013-05-16 23:46:00,
2013-05-16 19:47:00,62.1,57.7,29.79,SSW,206,4.0,10.0,86,0.00,,,0.00,meteohub,2013-05-16 23:47:00,
2013-05-16 19:48:00,62.1,57.7,29.79,SW,219,2.0,10.0,86,0.00,,,0.00,meteohub,2013-05-16 23:48:00,
2013-05-16 19:49:00,62.1,57.7,29.79,SW,234,1.0,10.0,86,0.00,,,0.00,meteohub,2013-05-16 23:49:00,
2013-05-16 19:51:00,62.2,58.3,29.79,SW,222,0.0,10.0,87,0.00,,,0.00,meteohub,2013-05-16 23:51:00,
2013-05-16 19:52:00,62.2,58.3,29.79,SW,222,0.0,10.0,87,0.00,,,0.00,meteohub,2013-05-16 23:52:00,
2013-05-16 19:53:00,62.2,58.3,29.79,SW,222,1.0,8.0,87,0.00,,,0.00,meteohub,2013-05-16 23:53:00,
2013-05-16 19:54:00,62.2,58.3,29.78,SW,223,3.0,8.0,87,0.00,,,0.00,meteohub,2013-05-16 23:54:00,
2013-05-16 19:56:00,62.4,58.5,29.79,WSW,238,1.0,8.0,87,0.00,,,0.00,meteohub,2013-05-16 23:56:00,
2013-05-16 19:57:00,62.4,58.5,29.79,WSW,238,0.0,8.0,87,0.00,,,0.00,meteohub,2013-05-16 23:57:00,
2013-05-16 19:58:00,62.6,58.6,29.79,WSW,238,0.0,6.0,87,0.00,,,0.00,meteohub,2013-05-16 23:58:00,
2013-05-16 19:59:00,62.8,58.8,29.79,SW,234,2.0,6.0,87,0.00,,,0.00,meteohub,2013-05-16 23:59:00,
2013-05-16 20:02:00,63.0,59.0,29.79,SW,221,0.0,6.0,87,0.00,,,0.00,meteohub,2013-05-17 00:02:00,
2013-05-16 20:03:00,63.0,59.0,29.79,SW,221,0.0,6.0,87,0.00,,,0.00,meteohub,2013-05-17 00:03:00,
2013-05-16 20:04:00,63.1,59.2,29.79,SW,221,0.0,4.0,87,0.00,,,0.00,meteohub,2013-05-17 00:04:00,
2013-05-16 20:05:00,63.1,59.2,29.79,SW,221,0.0,4.0,87,0.00,,,0.00,meteohub,2013-05-17 00:05:00,
2013-05-16 20:08:00,63.3,59.0,29.79,SSW,213,3.0,4.0,86,0.00,,,0.00,meteohub,2013-05-17 00:08:00,
2013-05-16 20:10:00,63.1,58.6,29.79,SSW,213,3.0,4.0,85,0.00,,,0.00,meteohub,2013-05-17 00:10:00,
2013-05-16 20:13:00,63.0,58.5,29.79,SSW,213,1.0,5.0,85,0.00,,,0.00,meteohub,2013-05-17 00:13:00,
2013-05-16 20:14:00,63.0,58.5,29.79,SSW,213,0.0,5.0,85,0.00,,,0.00,meteohub,2013-05-17 00:14:00,
2013-05-16 20:15:00,63.0,58.5,29.79,SSW,213,1.0,5.0,85,0.00,,,0.00,meteohub,2013-05-17 00:15:00,
2013-05-16 20:18:00,63.3,59.0,29.79,SW,219,2.0,5.0,86,0.00,,,0.00,meteohub,2013-05-17 00:18:00,
2013-05-16 20:19:00,63.3,59.0,29.79,SW,219,2.0,5.0,86,0.00,,,0.00,meteohub,2013-05-17 00:19:00,
2013-05-16 20:20:00,63.7,59.4,29.79,SW,219,1.0,5.0,86,0.00,,,0.00,meteohub,2013-05-17 00:20:00,
2013-05-16 20:24:00,63.9,59.2,29.79,SW,218,0.0,5.0,85,0.00,,,0.00,meteohub,2013-05-17 00:24:00,
2013-05-16 20:25:00,64.0,59.2,29.79,SW,217,0.0,5.0,84,0.00,,,0.00,meteohub,2013-05-17 00:25:00,
2013-05-16 20:29:00,64.0,59.2,29.79,SW,217,0.0,5.0,84,0.00,,,0.00,meteohub,2013-05-17 00:29:00,
2013-05-16 20:30:00,64.0,59.2,29.79,SW,217,0.0,5.0,84,0.00,,,0.00,meteohub,2013-05-17 00:30:00,
2013-05-16 20:31:00,64.0,58.8,29.79,SW,217,1.0,5.0,83,0.00,,,0.00,meteohub,2013-05-17 00:31:00,
2013-05-16 20:34:00,63.9,58.6,29.79,SSW,209,1.0,3.0,83,0.00,,,0.00,meteohub,2013-05-17 00:34:00,
2013-05-16 20:35:00,63.9,58.6,29.79,SSW,209,0.0,3.0,83,0.00,,,0.00,meteohub,2013-05-17 00:35:00,
2013-05-16 20:36:00,63.9,58.6,29.79,SSW,209,1.0,3.0,83,0.00,,,0.00,meteohub,2013-05-17 00:36:00,
2013-05-16 20:40:00,63.7,58.5,29.79,SSW,201,1.0,3.0,83,0.00,,,0.00,meteohub,2013-05-17 00:40:00,
2013-05-16 20:41:00,63.7,58.5,29.80,SSW,202,0.0,3.0,83,0.00,,,0.00,meteohub,2013-05-17 00:41:00,
2013-05-16 20:42:00,63.7,58.5,29.80,SSW,202,0.0,3.0,83,0.00,,,0.00,meteohub,2013-05-17 00:42:00,
2013-05-16 20:45:00,63.7,58.5,29.80,SSW,202,0.0,3.0,83,0.00,,,0.00,meteohub,2013-05-17 00:45:00,
2013-05-16 20:46:00,63.7,58.5,29.80,SSW,202,1.0,3.0,83,0.00,,,0.00,meteohub,2013-05-17 00:46:00,
2013-05-16 20:47:00,63.9,58.6,29.80,SSW,205,1.0,3.0,83,0.00,,,0.00,meteohub,2013-05-17 00:47:00,
2013-05-16 20:51:00,64.2,59.4,29.80,SW,229,3.0,3.0,84,0.00,,,0.00,meteohub,2013-05-17 00:51:00,
2013-05-16 20:52:00,64.6,59.7,29.80,SW,225,2.0,3.0,84,0.00,,,0.00,meteohub,2013-05-17 00:52:00,
2013-05-16 20:56:00,65.7,60.6,29.80,SW,232,3.0,3.0,84,0.00,,,0.00,meteohub,2013-05-17 00:56:00,
2013-05-16 20:57:00,65.8,60.6,29.80,SW,223,4.0,4.0,83,0.00,,,0.00,meteohub,2013-05-17 00:57:00,
2013-05-16 21:01:00,66.7,61.0,29.81,SW,219,0.0,5.0,82,0.00,,,0.00,meteohub,2013-05-17 01:01:00,
2013-05-16 21:02:00,66.7,60.8,29.81,SW,219,1.0,5.0,81,0.00,,,0.00,meteohub,2013-05-17 01:02:00,
2013-05-16 21:03:00,66.7,60.4,29.81,SW,219,2.0,5.0,80,0.00,,,0.00,meteohub,2013-05-17 01:03:00,
2013-05-16 21:07:00,66.2,58.8,29.81,SW,217,0.0,5.0,77,0.00,,,0.00,meteohub,2013-05-17 01:07:00,
2013-05-16 21:08:00,66.0,58.6,29.81,SW,217,0.0,5.0,77,0.00,,,0.00,meteohub,2013-05-17 01:08:00,
2013-05-16 21:12:00,65.8,59.2,29.81,SSW,213,2.0,5.0,79,0.00,,,0.00,meteohub,2013-05-17 01:12:00,
2013-05-16 21:13:00,65.8,59.2,29.81,SSW,213,1.0,4.0,79,0.00,,,0.00,meteohub,2013-05-17 01:13:00,
2013-05-16 21:17:00,65.3,58.3,29.81,SW,215,1.0,4.0,78,0.00,,,0.00,meteohub,2013-05-17 01:17:00,
2013-05-16 21:18:00,65.3,58.6,29.81,SSW,200,0.0,3.0,79,0.00,,,0.00,meteohub,2013-05-17 01:18:00,
2013-05-16 21:19:00,65.1,58.5,29.81,SSW,202,2.0,3.0,79,0.00,,,0.00,meteohub,2013-05-17 01:19:00,
2013-05-16 21:22:00,64.9,58.6,29.81,SW,215,2.0,3.0,80,0.00,,,0.00,meteohub,2013-05-17 01:22:00,
2013-05-16 21:23:00,64.9,58.6,29.81,SW,215,2.0,3.0,80,0.00,,,0.00,meteohub,2013-05-17 01:23:00,
2013-05-16 21:24:00,65.1,59.2,29.81,SW,223,1.0,3.0,81,0.00,,,0.00,meteohub,2013-05-17 01:24:00,
2013-05-16 21:25:00,65.1,59.2,29.81,SW,219,2.0,3.0,81,0.00,,,0.00,meteohub,2013-05-17 01:25:00,
2013-05-16 21:27:00,65.5,59.5,29.81,SW,224,0.0,3.0,81,0.00,,,0.00,meteohub,2013-05-17 01:27:00,
2013-05-16 21:28:00,65.5,59.9,29.81,SW,224,2.0,3.0,82,0.00,,,0.00,meteohub,2013-05-17 01:28:00,
2013-05-16 21:29:00,65.7,60.1,29.81,SW,217,2.0,3.0,82,0.00,,,0.00,meteohub,2013-05-17 01:29:00,
2013-05-16 21:30:00,65.8,60.3,29.81,SW,233,0.0,3.0,82,0.00,,,0.00,meteohub,2013-05-17 01:30:00,
2013-05-16 21:33:00,66.0,60.1,29.81,SSW,211,1.0,4.0,81,0.00,,,0.00,meteohub,2013-05-17 01:33:00,
2013-05-16 21:34:00,66.2,60.3,29.81,SSW,211,0.0,4.0,81,0.00,,,0.00,meteohub,2013-05-17 01:34:00,
2013-05-16 21:35:00,66.2,59.9,29.81,SSW,211,0.0,4.0,80,0.00,,,0.00,meteohub,2013-05-17 01:35:00,
2013-05-16 21:38:00,66.2,59.9,29.81,SW,228,1.0,4.0,80,0.00,,,0.00,meteohub,2013-05-17 01:38:00,
2013-05-16 21:39:00,66.4,60.4,29.81,SW,220,3.0,4.0,81,0.00,,,0.00,meteohub,2013-05-17 01:39:00,
2013-05-16 21:40:00,66.4,60.4,29.81,WSW,242,4.0,4.0,81,0.00,,,0.00,meteohub,2013-05-17 01:40:00,
2013-05-16 21:43:00,67.3,61.5,29.81,WSW,255,5.0,5.0,82,0.00,,,0.00,meteohub,2013-05-17 01:43:00,
2013-05-16 21:44:00,67.3,61.5,29.81,SW,233,5.0,5.0,82,0.00,,,0.00,meteohub,2013-05-17 01:44:00,
2013-05-16 21:46:00,67.6,61.5,29.81,SW,219,3.0,9.0,81,0.00,,,0.00,meteohub,2013-05-17 01:46:00,
2013-05-16 21:47:00,67.8,61.7,29.81,WSW,246,8.0,9.0,81,0.00,,,0.00,meteohub,2013-05-17 01:47:00,
2013-05-16 21:49:00,68.0,61.5,29.81,SW,220,4.0,9.0,80,0.00,,,0.00,meteohub,2013-05-17 01:49:00,
2013-05-16 21:50:00,68.2,61.7,29.81,SW,231,4.0,9.0,80,0.00,,,0.00,meteohub,2013-05-17 01:50:00,
2013-05-16 21:51:00,68.2,61.7,29.82,WSW,247,10.0,10.0,80,0.00,,,0.00,meteohub,2013-05-17 01:51:00,
2013-05-16 21:52:00,68.2,61.7,29.82,SW,225,5.0,9.0,80,0.00,,,0.00,meteohub,2013-05-17 01:52:00,
2013-05-16 21:55:00,68.2,61.7,29.82,WSW,238,8.0,9.0,80,0.00,,,0.00,meteohub,2013-05-17 01:55:00,
2013-05-16 21:57:00,68.0,61.5,29.82,WSW,242,5.0,9.0,80,0.00,,,0.00,meteohub,2013-05-17 01:57:00,
2013-05-16 22:00:00,67.8,61.7,29.82,SW,231,4.0,9.0,81,0.00,,,0.00,meteohub,2013-05-17 02:00:00,
2013-05-16 22:02:00,67.8,61.7,29.82,WSW,243,6.0,10.0,81,0.00,,,0.00,meteohub,2013-05-17 02:02:00,
2013-05-16 22:05:00,67.6,61.5,29.82,SSW,205,4.0,10.0,81,0.00,,,0.00,meteohub,2013-05-17 02:05:00,
2013-05-16 22:06:00,67.6,61.5,29.82,WSW,250,8.0,10.0,81,0.00,,,0.00,meteohub,2013-05-17 02:06:00,
2013-05-16 22:07:00,67.6,61.9,29.82,SW,217,5.0,10.0,82,0.00,,,0.00,meteohub,2013-05-17 02:07:00,
2013-05-16 22:10:00,67.6,61.9,29.82,SW,229,3.0,10.0,82,0.00,,,0.00,meteohub,2013-05-17 02:10:00,
2013-05-16 22:11:00,67.5,61.7,29.82,WSW,248,7.0,10.0,82,0.00,,,0.00,meteohub,2013-05-17 02:11:00,
2013-05-16 22:12:00,67.5,61.7,29.82,WSW,245,5.0,10.0,82,0.00,,,0.00,meteohub,2013-05-17 02:12:00,
2013-05-16 22:16:00,67.5,62.1,29.82,WSW,245,5.0,9.0,83,0.00,,,0.00,meteohub,2013-05-17 02:16:00,
2013-05-16 22:17:00,67.5,62.1,29.82,SW,220,2.0,9.0,83,0.00,,,0.00,meteohub,2013-05-17 02:17:00,
2013-05-16 22:18:00,67.5,62.1,29.82,SW,236,3.0,9.0,83,0.00,,,0.00,meteohub,2013-05-17 02:18:00,
2013-05-16 22:21:00,67.5,62.1,29.82,SW,229,3.0,9.0,83,0.00,,,0.00,meteohub,2013-05-17 02:21:00,
2013-05-16 22:23:00,67.5,62.1,29.82,WSW,248,4.0,9.0,83,0.00,,,0.00,meteohub,2013-05-17 02:23:00,
2013-05-16 22:26:00,67.3,61.9,29.82,WSW,240,4.0,9.0,83,0.00,,,0.00,meteohub,2013-05-17 02:26:00,
2013-05-16 22:27:00,67.3,61.9,29.82,SW,219,4.0,9.0,83,0.00,,,0.00,meteohub,2013-05-17 02:27:00,
2013-05-16 22:28:00,67.3,62.2,29.82,WSW,238,3.0,9.0,84,0.00,,,0.00,meteohub,2013-05-17 02:28:00,
2013-05-16 22:29:00,67.3,62.2,29.82,SW,233,2.0,9.0,84,0.00,,,0.00,meteohub,2013-05-17 02:29:00,
2013-05-16 22:31:00,67.1,62.1,29.82,SW,224,4.0,9.0,84,0.00,,,0.00,meteohub,2013-05-17 02:31:00,
2013-05-16 22:32:00,67.1,62.1,29.82,WSW,250,7.0,9.0,84,0.00,,,0.00,meteohub,2013-05-17 02:32:00,
2013-05-16 22:33:00,67.1,62.1,29.82,SW,235,4.0,9.0,84,0.00,,,0.00,meteohub,2013-05-17 02:33:00,
2013-05-16 22:34:00,66.9,62.2,29.82,SW,226,3.0,9.0,85,0.00,,,0.00,meteohub,2013-05-17 02:34:00,
2013-05-16 22:36:00,66.9,62.2,29.82,SW,232,4.0,9.0,85,0.00,,,0.00,meteohub,2013-05-17 02:36:00,
2013-05-16 22:37:00,66.9,62.2,29.82,WSW,240,3.0,9.0,85,0.00,,,0.00,meteohub,2013-05-17 02:37:00,
2013-05-16 22:38:00,66.7,62.1,29.82,WSW,238,5.0,9.0,85,0.00,,,0.00,meteohub,2013-05-17 02:38:00,
2013-05-16 22:40:00,66.7,62.1,29.82,WSW,250,3.0,9.0,85,0.00,,,0.00,meteohub,2013-05-17 02:40:00,
2013-05-16 22:41:00,66.7,62.1,29.82,WSW,242,3.0,9.0,85,0.00,,,0.00,meteohub,2013-05-17 02:41:00,
2013-05-16 22:42:00,66.7,62.1,29.82,WSW,242,3.0,9.0,85,0.00,,,0.00,meteohub,2013-05-17 02:42:00,
2013-05-16 22:43:00,66.7,62.1,29.82,WSW,245,2.0,9.0,85,0.00,,,0.00,meteohub,2013-05-17 02:43:00,
2013-05-16 22:45:00,66.7,62.1,29.82,WSW,258,2.0,9.0,85,0.00,,,0.00,meteohub,2013-05-17 02:45:00,
2013-05-16 22:46:00,66.7,62.1,29.82,WSW,240,4.0,9.0,85,0.00,,,0.00,meteohub,2013-05-17 02:46:00,
2013-05-16 22:47:00,66.7,62.1,29.82,WSW,254,4.0,9.0,85,0.00,,,0.00,meteohub,2013-05-17 02:47:00,
2013-05-16 22:48:00,66.7,62.1,29.82,WSW,249,3.0,9.0,85,0.00,,,0.00,meteohub,2013-05-17 02:48:00,
2013-05-16 22:50:00,66.7,62.1,29.82,WSW,258,6.0,9.0,85,0.00,,,0.00,meteohub,2013-05-17 02:50:00,
2013-05-16 22:51:00,66.7,62.1,29.82,WSW,247,3.0,6.0,85,0.00,,,0.00,meteohub,2013-05-17 02:51:00,
2013-05-16 22:52:00,66.7,62.1,29.82,WSW,246,3.0,6.0,85,0.00,,,0.00,meteohub,2013-05-17 02:52:00,
2013-05-16 22:53:00,66.7,62.1,29.82,WSW,237,4.0,6.0,85,0.00,,,0.00,meteohub,2013-05-17 02:53:00,
2013-05-16 22:55:00,66.7,62.1,29.82,SW,234,5.0,6.0,85,0.00,,,0.00,meteohub,2013-05-17 02:55:00,
2013-05-16 22:57:00,66.7,62.4,29.82,West,269,6.0,8.0,86,0.00,,,0.00,meteohub,2013-05-17 02:57:00,
2013-05-16 22:58:00,66.7,62.4,29.82,West,259,3.0,8.0,86,0.00,,,0.00,meteohub,2013-05-17 02:58:00,
2013-05-16 23:00:00,66.6,62.2,29.82,WSW,251,3.0,8.0,86,0.00,,,0.00,meteohub,2013-05-17 03:00:00,
2013-05-16 23:02:00,66.6,62.2,29.82,WSW,238,3.0,8.0,86,0.00,,,0.00,meteohub,2013-05-17 03:02:00,
2013-05-16 23:03:00,66.6,62.2,29.82,WSW,246,4.0,8.0,86,0.00,,,0.00,meteohub,2013-05-17 03:03:00,
2013-05-16 23:05:00,66.6,62.2,29.82,WSW,242,3.0,7.0,86,0.00,,,0.00,meteohub,2013-05-17 03:05:00,
2013-05-16 23:07:00,66.6,62.2,29.82,West,265,2.0,7.0,86,0.00,,,0.00,meteohub,2013-05-17 03:07:00,
2013-05-16 23:08:00,66.6,62.2,29.82,SW,232,3.0,7.0,86,0.00,,,0.00,meteohub,2013-05-17 03:08:00,
2013-05-16 23:09:00,66.4,62.1,29.82,SW,226,5.0,7.0,86,0.00,,,0.00,meteohub,2013-05-17 03:09:00,
2013-05-16 23:10:00,66.4,62.4,29.82,WSW,242,1.0,7.0,87,0.00,,,0.00,meteohub,2013-05-17 03:10:00,
2013-05-16 23:12:00,66.4,62.4,29.82,SW,235,3.0,7.0,87,0.00,,,0.00,meteohub,2013-05-17 03:12:00,
2013-05-16 23:14:00,66.4,62.4,29.81,WSW,243,4.0,7.0,87,0.00,,,0.00,meteohub,2013-05-17 03:14:00,
2013-05-16 23:15:00,66.4,62.4,29.82,WSW,237,3.0,7.0,87,0.00,,,0.00,meteohub,2013-05-17 03:15:00,
2013-05-16 23:17:00,66.4,62.1,29.82,SW,233,4.0,7.0,86,0.00,,,0.00,meteohub,2013-05-17 03:17:00,
2013-05-16 23:18:00,66.4,62.1,29.82,SW,236,3.0,7.0,86,0.00,,,0.00,meteohub,2013-05-17 03:18:00,
2013-05-16 23:19:00,66.6,62.2,29.82,SW,233,4.0,7.0,86,0.00,,,0.00,meteohub,2013-05-17 03:19:00,
2013-05-16 23:20:00,66.6,62.2,29.82,West,260,6.0,7.0,86,0.00,,,0.00,meteohub,2013-05-17 03:20:00,
2013-05-16 23:23:00,66.7,62.4,29.82,WSW,243,5.0,8.0,86,0.00,,,0.00,meteohub,2013-05-17 03:23:00,
2013-05-16 23:24:00,66.7,62.1,29.82,SW,235,6.0,8.0,85,0.00,,,0.00,meteohub,2013-05-17 03:24:00,
2013-05-16 23:25:00,66.9,62.2,29.82,SW,233,5.0,8.0,85,0.00,,,0.00,meteohub,2013-05-17 03:25:00,
2013-05-16 23:26:00,66.9,62.2,29.82,WSW,240,4.0,9.0,85,0.00,,,0.00,meteohub,2013-05-17 03:26:00,
2013-05-16 23:28:00,67.1,62.4,29.82,WSW,242,6.0,9.0,85,0.00,,,0.00,meteohub,2013-05-17 03:28:00,
2013-05-16 23:29:00,67.3,62.2,29.82,WSW,246,7.0,9.0,84,0.00,,,0.00,meteohub,2013-05-17 03:29:00,
2013-05-16 23:31:00,67.3,62.2,29.82,WSW,254,5.0,9.0,84,0.00,,,0.00,meteohub,2013-05-17 03:31:00,
2013-05-16 23:33:00,67.5,62.1,29.82,WSW,244,4.0,9.0,83,0.00,,,0.00,meteohub,2013-05-17 03:33:00,
2013-05-16 23:35:00,67.5,62.4,29.82,WSW,250,3.0,9.0,84,0.00,,,0.00,meteohub,2013-05-17 03:35:00,
2013-05-16 23:37:00,67.5,62.1,29.82,WSW,248,4.0,9.0,83,0.00,,,0.00,meteohub,2013-05-17 03:37:00,
2013-05-16 23:38:00,67.5,62.1,29.82,West,263,4.0,9.0,83,0.00,,,0.00,meteohub,2013-05-17 03:38:00,
2013-05-16 23:39:00,67.5,62.1,29.82,WSW,243,4.0,9.0,83,0.00,,,0.00,meteohub,2013-05-17 03:39:00,
2013-05-16 23:40:00,67.6,62.2,29.82,SW,230,4.0,9.0,83,0.00,,,0.00,meteohub,2013-05-17 03:40:00,
2013-05-16 23:43:00,67.6,62.2,29.82,WSW,242,3.0,9.0,83,0.00,,,0.00,meteohub,2013-05-17 03:43:00,
2013-05-16 23:44:00,67.6,62.2,29.82,SW,232,3.0,9.0,83,0.00,,,0.00,meteohub,2013-05-17 03:44:00,
2013-05-16 23:45:00,67.6,62.2,29.82,SW,223,3.0,9.0,83,0.00,,,0.00,meteohub,2013-05-17 03:45:00,
2013-05-16 23:48:00,67.5,62.1,29.82,West,263,2.0,9.0,83,0.00,,,0.00,meteohub,2013-05-17 03:48:00,
2013-05-16 23:49:00,67.5,62.1,29.82,WSW,243,1.0,9.0,83,0.00,,,0.00,meteohub,2013-05-17 03:49:00,
2013-05-16 23:50:00,67.5,62.1,29.82,WNW,285,3.0,9.0,83,0.00,,,0.00,meteohub,2013-05-17 03:50:00,
2013-05-16 23:51:00,67.3,61.9,29.82,WSW,250,2.0,7.0,83,0.00,,,0.00,meteohub,2013-05-17 03:51:00,
2013-05-16 23:53:00,67.3,61.9,29.82,West,268,2.0,7.0,83,0.00,,,0.00,meteohub,2013-05-17 03:53:00,
2013-05-16 23:54:00,67.3,61.9,29.82,West,273,2.0,7.0,83,0.00,,,0.00,meteohub,2013-05-17 03:54:00,
2013-05-16 23:55:00,67.3,61.9,29.82,WNW,286,2.0,7.0,83,0.00,,,0.00,meteohub,2013-05-17 03:55:00,
2013-05-16 23:57:00,67.1,61.7,29.82,West,271,2.0,7.0,83,0.00,,,0.00,meteohub,2013-05-17 03:57:00,
2013-05-16 23:59:00,66.9,61.9,29.82,West,272,6.0,7.0,84,0.00,,,0.00,meteohub,2013-05-17 03:59:00,